| time (UTC) | temp F | wind direction | speed MPH | gust MPH | rain 1hr in | rain 24hr in | rain mn in | humidity % | barometer mb |
| 20260831013023 | 59 | 40 | 1.0 | 2.0 | 0.00 | 0.00 | 0.00 | 95 | 1022.8 |
| 20260831012903 | 59 | 39 | 1.0 | 2.0 | 0.00 | 0.00 | 0.00 | 95 | 1022.7 |
| 20260831012803 | 59 | 38 | 1.0 | 2.0 | 0.00 | 0.00 | 0.00 | 95 | 1022.8 |
| 20260831012702 | 59 | 36 | 0.0 | 1.0 | 0.00 | 0.00 | 0.00 | 95 | 1022.8 |
| 20260831012603 | 59 | 36 | 0.0 | 1.0 | 0.00 | 0.00 | 0.00 | 95 | 1022.9 |
| 20260831012503 | 59 | 35 | 0.0 | 1.0 | 0.00 | 0.00 | 0.00 | 95 | 1023.0 |
| 20260831012403 | 59 | 40 | 0.0 | 1.0 | 0.00 | 0.00 | 0.00 | 95 | 1022.9 |
| 20260831012305 | 59 | 43 | 0.0 | 1.0 | 0.00 | 0.00 | 0.00 | 95 | 1022.9 |
| 20260831012202 | 59 | 43 | 0.0 | 1.0 | 0.00 | 0.00 | 0.00 | 95 | 1022.8 |
| 20260831012124 | 59 | 44 | 0.0 | 1.0 | 0.00 | 0.00 | 0.00 | 95 | 1022.8 |
| 20260831012003 | 59 | 46 | 0.0 | 1.0 | 0.00 | 0.00 | 0.00 | 94 | 1022.7 |
| 20260831011902 | 59 | 48 | 0.0 | 1.0 | 0.00 | 0.00 | 0.00 | 94 | 1022.7 |
| 20260831011802 | 59 | 48 | 0.0 | 1.0 | 0.00 | 0.00 | 0.00 | 94 | 1022.8 |
| 20260831011702 | 59 | 48 | 0.0 | 1.0 | 0.00 | 0.00 | 0.00 | 94 | 1022.8 |
| 20260831011603 | 59 | 48 | 1.0 | 1.0 | 0.00 | 0.00 | 0.00 | 94 | 1022.7 |
| 20260831011503 | 59 | 49 | 1.0 | 2.0 | 0.00 | 0.00 | 0.00 | 94 | 1022.7 |
| 20260831011403 | 59 | 49 | 1.0 | 2.0 | 0.00 | 0.00 | 0.00 | 94 | 1022.9 |
| 20260831011302 | 59 | 49 | 1.0 | 2.0 | 0.00 | 0.00 | 0.00 | 94 | 1022.9 |
| 20260831011203 | 59 | 49 | 1.0 | 2.0 | 0.00 | 0.00 | 0.00 | 94 | 1022.8 |
| 20260831011102 | 59 | 49 | 1.0 | 2.0 | 0.00 | 0.00 | 0.00 | 94 | 1022.8 |
| 20260831011003 | 59 | 49 | 1.0 | 2.0 | 0.00 | 0.00 | 0.00 | 94 | 1022.7 |
| 20260831010903 | 59 | 49 | 1.0 | 2.0 | 0.00 | 0.00 | 0.00 | 94 | 1022.8 |
| 20260831010803 | 59 | 49 | 1.0 | 2.0 | 0.00 | 0.00 | 0.00 | 94 | 1022.7 |
| 20260831010702 | 59 | 49 | 1.0 | 2.0 | 0.00 | 0.00 | 0.00 | 94 | 1022.7 |
| 20260831010602 | 59 | 48 | 1.0 | 2.0 | 0.00 | 0.00 | 0.00 | 94 | 1022.6 |
| 20260831010503 | 59 | 48 | 1.0 | 2.0 | 0.00 | 0.00 | 0.00 | 94 | 1022.8 |
| 20260831010402 | 59 | 46 | 1.0 | 2.0 | 0.00 | 0.00 | 0.00 | 94 | 1022.9 |
| 20260831010303 | 59 | 46 | 1.0 | 2.0 | 0.00 | 0.00 | 0.00 | 94 | 1022.9 |
| 20260831010203 | 59 | 45 | 1.0 | 2.0 | 0.00 | 0.00 | 0.00 | 94 | 1022.7 |
| 20260831010003 | 59 | 44 | 1.0 | 2.0 | 0.00 | 0.00 | 0.00 | 94 | 1022.8 |
| 20260831005924 | 59 | 43 | 1.0 | 2.0 | 0.00 | 0.00 | 0.00 | 94 | 1022.8 |
| 20260831005803 | 59 | 41 | 1.0 | 2.0 | 0.00 | 0.00 | 0.00 | 94 | 1022.8 |
| 20260831005702 | 59 | 41 | 1.0 | 2.0 | 0.00 | 0.00 | 0.00 | 94 | 1022.8 |
| 20260831005624 | 59 | 43 | 1.0 | 2.0 | 0.00 | 0.00 | 0.00 | 94 | 1022.9 |
| 20260831005503 | 59 | 43 | 1.0 | 2.0 | 0.00 | 0.00 | 0.00 | 94 | 1022.9 |
| 20260831005403 | 59 | 44 | 1.0 | 2.0 | 0.00 | 0.00 | 0.00 | 94 | 1023.0 |
| 20260831005306 | 59 | 44 | 1.0 | 2.0 | 0.00 | 0.00 | 0.00 | 94 | 1022.8 |
| 20260831005203 | 59 | 44 | 1.0 | 2.0 | 0.00 | 0.00 | 0.00 | 94 | 1023.0 |
| 20260831005124 | 59 | 44 | 1.0 | 2.0 | 0.00 | 0.00 | 0.00 | 94 | 1023.0 |
| 20260831005002 | 59 | 44 | 1.0 | 2.0 | 0.00 | 0.00 | 0.00 | 94 | 1022.9 |
| 20260831004902 | 59 | 44 | 1.0 | 2.0 | 0.00 | 0.00 | 0.00 | 95 | 1022.8 |
| 20260831004803 | 59 | 45 | 1.0 | 2.0 | 0.00 | 0.00 | 0.00 | 95 | 1022.9 |
| 20260831004703 | 59 | 44 | 0.0 | 2.0 | 0.00 | 0.00 | 0.00 | 95 | 1022.9 |
| 20260831004603 | 59 | 44 | 0.0 | 2.0 | 0.00 | 0.00 | 0.00 | 95 | 1022.8 |
| 20260831004503 | 59 | 42 | 0.0 | 2.0 | 0.00 | 0.00 | 0.00 | 95 | 1022.9 |
| 20260831004402 | 59 | 39 | 0.0 | 1.0 | 0.00 | 0.00 | 0.00 | 95 | 1022.9 |
| 20260831004323 | 59 | 39 | 0.0 | 1.0 | 0.00 | 0.00 | 0.00 | 95 | 1022.9 |
| 20260831004224 | 59 | 40 | 0.0 | 1.0 | 0.00 | 0.00 | 0.00 | 95 | 1023.2 |
| 20260831004124 | 59 | 39 | 0.0 | 1.0 | 0.00 | 0.00 | 0.00 | 95 | 1023.0 |
| 20260831004003 | 59 | 38 | 0.0 | 1.0 | 0.00 | 0.00 | 0.00 | 95 | 1023.0 |
| 20260831003903 | 59 | 38 | 0.0 | 1.0 | 0.00 | 0.00 | 0.00 | 95 | 1023.0 |
| 20260831003802 | 59 | 38 | 0.0 | 1.0 | 0.00 | 0.00 | 0.00 | 95 | 1023.1 |
| 20260831003703 | 59 | 38 | 1.0 | 1.0 | 0.00 | 0.00 | 0.00 | 95 | 1023.0 |
| 20260831003603 | 59 | 38 | 1.0 | 1.0 | 0.00 | 0.00 | 0.00 | 95 | 1023.1 |
| 20260831003503 | 59 | 37 | 1.0 | 1.0 | 0.00 | 0.00 | 0.00 | 95 | 1023.1 |
| 20260831003403 | 59 | 37 | 1.0 | 1.0 | 0.00 | 0.00 | 0.00 | 95 | 1023.0 |
| 20260831003303 | 59 | 37 | 1.0 | 1.0 | 0.00 | 0.00 | 0.00 | 95 | 1023.0 |
| 20260831003202 | 59 | 37 | 1.0 | 2.0 | 0.00 | 0.00 | 0.00 | 95 | 1023.1 |
| 20260831003103 | 59 | 39 | 1.0 | 2.0 | 0.00 | 0.00 | 0.00 | 95 | 1023.1 |
| 20260831003024 | 59 | 39 | 1.0 | 2.0 | 0.00 | 0.00 | 0.00 | 95 | 1022.9 |
| 20260831002902 | 59 | 44 | 1.0 | 2.0 | 0.00 | 0.00 | 0.00 | 95 | 1023.1 |
| 20260831002802 | 59 | 48 | 1.0 | 2.0 | 0.00 | 0.00 | 0.00 | 95 | 1023.1 |
| 20260831002702 | 59 | 49 | 1.0 | 2.0 | 0.00 | 0.00 | 0.00 | 95 | 1023.1 |
| 20260831002603 | 59 | 49 | 1.0 | 2.0 | 0.00 | 0.00 | 0.00 | 95 | 1023.2 |
| 20260831002524 | 59 | 51 | 1.0 | 2.0 | 0.00 | 0.00 | 0.00 | 95 | 1023.1 |
| 20260831002403 | 59 | 52 | 1.0 | 2.0 | 0.00 | 0.00 | 0.00 | 95 | 1023.0 |
| 20260831002305 | 59 | 51 | 1.0 | 2.0 | 0.00 | 0.00 | 0.00 | 95 | 1023.3 |
| 20260831002203 | 59 | 53 | 1.0 | 2.0 | 0.00 | 0.00 | 0.00 | 95 | 1023.3 |
| 20260831002103 | 59 | 53 | 1.0 | 2.0 | 0.00 | 0.00 | 0.00 | 95 | 1023.1 |
| 20260831002003 | 59 | 52 | 1.0 | 2.0 | 0.00 | 0.00 | 0.00 | 95 | 1023.1 |
| 20260831001924 | 60 | 50 | 1.0 | 2.0 | 0.00 | 0.00 | 0.00 | 95 | 1023.1 |
| 20260831001824 | 60 | 46 | 1.0 | 2.0 | 0.00 | 0.00 | 0.00 | 95 | 1023.1 |
| 20260831001703 | 60 | 47 | 1.0 | 2.0 | 0.00 | 0.00 | 0.00 | 95 | 1023.1 |
| 20260831001603 | 60 | 47 | 1.0 | 2.0 | 0.00 | 0.00 | 0.00 | 95 | 1023.2 |
| 20260831001524 | 60 | 47 | 1.0 | 2.0 | 0.00 | 0.00 | 0.00 | 95 | 1023.2 |
| 20260831001402 | 60 | 50 | 1.0 | 2.0 | 0.00 | 0.00 | 0.00 | 95 | 1023.1 |
| 20260831001303 | 60 | 50 | 1.0 | 2.0 | 0.00 | 0.00 | 0.00 | 95 | 1023.0 |
| 20260831001203 | 60 | 50 | 1.0 | 2.0 | 0.00 | 0.00 | 0.00 | 95 | 1023.1 |
| 20260831001103 | 60 | 50 | 1.0 | 2.0 | 0.00 | 0.00 | 0.00 | 95 | 1023.1 |
| 20260831001003 | 60 | 48 | 1.0 | 2.0 | 0.00 | 0.00 | 0.00 | 95 | 1023.1 |
| 20260831000924 | 60 | 48 | 1.0 | 2.0 | 0.00 | 0.00 | 0.00 | 95 | 1023.0 |
| 20260831000824 | 60 | 49 | 1.0 | 2.0 | 0.00 | 0.00 | 0.00 | 95 | 1023.2 |
| 20260831000702 | 60 | 46 | 1.0 | 2.0 | 0.00 | 0.00 | 0.00 | 95 | 1023.2 |
| 20260831000603 | 60 | 47 | 1.0 | 2.0 | 0.00 | 0.00 | 0.00 | 95 | 1023.2 |
| 20260831000503 | 60 | 45 | 1.0 | 2.0 | 0.00 | 0.00 | 0.00 | 95 | 1023.2 |
| 20260831000403 | 60 | 41 | 1.0 | 2.0 | 0.00 | 0.00 | 0.00 | 95 | 1023.1 |
| 20260831000303 | 60 | 43 | 1.0 | 2.0 | 0.00 | 0.00 | 0.00 | 95 | 1023.1 |
| 20260831000226 | 60 | 42 | 1.0 | 2.0 | 0.00 | 0.00 | 0.00 | 95 | 1023.1 |
| 20260831000103 | 60 | 42 | 1.0 | 2.0 | 0.00 | 0.00 | 0.00 | 95 | 1023.3 |
| 20260831000003 | 60 | 42 | 1.0 | 2.0 | 0.00 | 0.00 | 0.00 | 95 | 1023.1 |
| 20260830235903 | 60 | 42 | 1.0 | 2.0 | 0.00 | 0.00 | 0.00 | 95 | 1023.2 |
| 20260830235803 | 60 | 42 | 1.0 | 2.0 | 0.00 | 0.00 | 0.00 | 95 | 1023.0 |
| 20260830235703 | 60 | 43 | 1.0 | 2.0 | 0.00 | 0.00 | 0.00 | 95 | 1023.1 |
| 20260830235603 | 60 | 42 | 1.0 | 2.0 | 0.00 | 0.00 | 0.00 | 95 | 1023.5 |
| 20260830235503 | 60 | 42 | 1.0 | 2.0 | 0.00 | 0.00 | 0.00 | 95 | 1023.1 |
| 20260830235403 | 60 | 42 | 1.0 | 2.0 | 0.00 | 0.00 | 0.00 | 95 | 1023.1 |
| 20260830235324 | 60 | 41 | 1.0 | 2.0 | 0.00 | 0.00 | 0.00 | 95 | 1023.1 |
| 20260830235203 | 60 | 43 | 1.0 | 2.0 | 0.00 | 0.00 | 0.00 | 95 | 1023.1 |
| 20260830235103 | 60 | 42 | 1.0 | 2.0 | 0.00 | 0.00 | 0.00 | 95 | 1023.1 |
| 20260830235003 | 60 | 42 | 1.0 | 2.0 | 0.00 | 0.00 | 0.00 | 95 | 1023.2 |
| 20260830234903 | 60 | 42 | 1.0 | 2.0 | 0.00 | 0.00 | 0.00 | 95 | 1023.0 |
| 20260830234803 | 60 | 48 | 1.0 | 2.0 | 0.00 | 0.00 | 0.00 | 95 | 1022.9 |
| 20260830234703 | 60 | 47 | 0.0 | 2.0 | 0.00 | 0.00 | 0.00 | 95 | 1022.9 |
| 20260830234603 | 60 | 49 | 0.0 | 2.0 | 0.00 | 0.00 | 0.00 | 95 | 1023.0 |
| 20260830234503 | 60 | 48 | 0.0 | 2.0 | 0.00 | 0.00 | 0.00 | 95 | 1023.1 |
| 20260830234403 | 60 | 48 | 0.0 | 2.0 | 0.00 | 0.00 | 0.00 | 96 | 1023.1 |
| 20260830234303 | 60 | 46 | 0.0 | 2.0 | 0.00 | 0.00 | 0.00 | 96 | 1023.1 |
| 20260830234224 | 60 | 41 | 0.0 | 1.0 | 0.00 | 0.00 | 0.00 | 96 | 1023.1 |
| 20260830234103 | 60 | 42 | 0.0 | 1.0 | 0.00 | 0.00 | 0.00 | 96 | 1023.1 |
| 20260830234024 | 60 | 40 | 0.0 | 1.0 | 0.00 | 0.00 | 0.00 | 96 | 1023.1 |
| 20260830233903 | 60 | 39 | 0.0 | 1.0 | 0.00 | 0.00 | 0.00 | 96 | 1023.1 |
| 20260830233824 | 60 | 39 | 0.0 | 1.0 | 0.00 | 0.00 | 0.00 | 95 | 1023.1 |
| 20260830233703 | 60 | 32 | 0.0 | 1.0 | 0.00 | 0.00 | 0.00 | 95 | 1023.1 |
| 20260830233603 | 60 | 32 | 0.0 | 1.0 | 0.00 | 0.00 | 0.00 | 95 | 1023.3 |
| 20260830233503 | 60 | 27 | 0.0 | 1.0 | 0.00 | 0.00 | 0.00 | 95 | 1023.3 |
| 20260830233403 | 60 | 27 | 0.0 | 1.0 | 0.00 | 0.00 | 0.00 | 95 | 1023.2 |
| 20260830233303 | 60 | 27 | 0.0 | 1.0 | 0.00 | 0.00 | 0.00 | 95 | 1023.2 |
| 20260830233224 | 60 | 25 | 0.0 | 1.0 | 0.00 | 0.00 | 0.00 | 95 | 1023.1 |
| 20260830233103 | 60 | 26 | 0.0 | 1.0 | 0.00 | 0.00 | 0.00 | 95 | 1023.1 |
| 20260830233024 | 60 | 24 | 0.0 | 1.0 | 0.00 | 0.00 | 0.00 | 95 | 1023.0 |
| 20260830232903 | 60 | 23 | 0.0 | 1.0 | 0.00 | 0.00 | 0.00 | 95 | 1023.2 |
| 20260830232824 | 60 | 21 | 0.0 | 1.0 | 0.00 | 0.00 | 0.00 | 95 | 1023.2 |
| 20260830232703 | 60 | 21 | 0.0 | 1.0 | 0.00 | 0.00 | 0.00 | 95 | 1023.2 |
| 20260830232603 | 60 | 21 | 0.0 | 1.0 | 0.00 | 0.00 | 0.00 | 95 | 1023.0 |
| 20260830232503 | 60 | 21 | 0.0 | 1.0 | 0.00 | 0.00 | 0.00 | 95 | 1023.1 |
| 20260830232403 | 60 | 26 | 0.0 | 1.0 | 0.00 | 0.00 | 0.00 | 95 | 1023.1 |
| 20260830232305 | 60 | 23 | 0.0 | 1.0 | 0.00 | 0.00 | 0.00 | 95 | 1023.1 |
| 20260830232203 | 60 | 23 | 0.0 | 1.0 | 0.00 | 0.00 | 0.00 | 95 | 1023.1 |
| 20260830232103 | 60 | 23 | 0.0 | 1.0 | 0.00 | 0.00 | 0.00 | 95 | 1023.2 |
| 20260830232003 | 60 | 18 | 0.0 | 1.0 | 0.00 | 0.00 | 0.00 | 95 | 1023.3 |
| 20260830231903 | 60 | 16 | 0.0 | 1.0 | 0.00 | 0.00 | 0.00 | 95 | 1023.3 |
| 20260830231803 | 60 | 16 | 0.0 | 1.0 | 0.00 | 0.00 | 0.00 | 95 | 1023.0 |
| 20260830231703 | 60 | 15 | 0.0 | 1.0 | 0.00 | 0.00 | 0.00 | 95 | 1023.2 |
| 20260830231603 | 60 | 14 | 0.0 | 1.0 | 0.00 | 0.00 | 0.00 | 95 | 1023.2 |
| 20260830231503 | 60 | 14 | 0.0 | 1.0 | 0.00 | 0.00 | 0.00 | 95 | 1023.2 |
| 20260830231403 | 60 | 14 | 0.0 | 1.0 | 0.00 | 0.00 | 0.00 | 95 | 1023.3 |
| 20260830231303 | 60 | 14 | 0.0 | 1.0 | 0.00 | 0.00 | 0.00 | 95 | 1023.2 |
| 20260830231203 | 60 | 14 | 0.0 | 1.0 | 0.00 | 0.00 | 0.00 | 95 | 1023.3 |
| 20260830231103 | 60 | 14 | 0.0 | 1.0 | 0.00 | 0.00 | 0.00 | 95 | 1023.3 |
| 20260830231003 | 60 | 20 | 0.0 | 1.0 | 0.00 | 0.00 | 0.00 | 95 | 1023.3 |
| 20260830230903 | 60 | 9 | 0.0 | 1.0 | 0.00 | 0.00 | 0.00 | 95 | 1023.2 |
| 20260830230803 | 60 | 7 | 0.0 | 1.0 | 0.00 | 0.00 | 0.00 | 95 | 1023.0 |
| 20260830230703 | 60 | 5 | 0.0 | 1.0 | 0.00 | 0.00 | 0.00 | 95 | 1023.0 |
| 20260830230603 | 60 | 9 | 0.0 | 1.0 | 0.00 | 0.00 | 0.00 | 95 | 1023.1 |
| 20260830230503 | 60 | 9 | 0.0 | 1.0 | 0.00 | 0.00 | 0.00 | 95 | 1023.5 |
| 20260830230424 | 60 | 11 | 0.0 | 1.0 | 0.00 | 0.00 | 0.00 | 95 | 1023.1 |
| 20260830230303 | 60 | 8 | 0.0 | 1.0 | 0.00 | 0.00 | 0.00 | 95 | 1023.1 |
| 20260830230203 | 60 | 8 | 0.0 | 1.0 | 0.00 | 0.00 | 0.00 | 95 | 1023.3 |
| 20260830230103 | 60 | 12 | 1.0 | 1.0 | 0.00 | 0.00 | 0.00 | 95 | 1023.2 |
| 20260830230003 | 60 | 16 | 1.0 | 1.0 | 0.00 | 0.00 | 0.00 | 95 | 1023.3 |
| 20260830225903 | 60 | 18 | 1.0 | 1.0 | 0.00 | 0.00 | 0.00 | 95 | 1023.3 |
| 20260830225803 | 60 | 20 | 1.0 | 1.0 | 0.00 | 0.00 | 0.00 | 95 | 1023.3 |
| 20260830225703 | 60 | 20 | 1.0 | 1.0 | 0.00 | 0.00 | 0.00 | 95 | 1023.2 |
| 20260830225603 | 60 | 21 | 1.0 | 1.0 | 0.00 | 0.00 | 0.00 | 95 | 1023.3 |
| 20260830225503 | 60 | 24 | 1.0 | 1.0 | 0.00 | 0.00 | 0.00 | 95 | 1023.3 |
| 20260830225403 | 60 | 27 | 1.0 | 1.0 | 0.00 | 0.00 | 0.00 | 95 | 1023.0 |
| 20260830225324 | 60 | 28 | 1.0 | 1.0 | 0.00 | 0.00 | 0.00 | 95 | 1023.3 |
| 20260830225203 | 60 | 35 | 1.0 | 2.0 | 0.00 | 0.00 | 0.00 | 95 | 1023.5 |
| 20260830225103 | 60 | 35 | 1.0 | 2.0 | 0.00 | 0.00 | 0.00 | 95 | 1023.5 |
| 20260830225003 | 60 | 35 | 1.0 | 2.0 | 0.00 | 0.00 | 0.00 | 94 | 1023.1 |
| 20260830224903 | 60 | 35 | 1.0 | 2.0 | 0.00 | 0.00 | 0.00 | 94 | 1023.1 |
| 20260830224803 | 60 | 40 | 1.0 | 2.0 | 0.00 | 0.00 | 0.00 | 94 | 1023.1 |
| 20260830224703 | 60 | 40 | 1.0 | 2.0 | 0.00 | 0.00 | 0.00 | 94 | 1023.1 |
| 20260830224603 | 60 | 40 | 1.0 | 2.0 | 0.00 | 0.00 | 0.00 | 94 | 1023.3 |
| 20260830224503 | 60 | 40 | 1.0 | 2.0 | 0.00 | 0.00 | 0.00 | 94 | 1023.1 |
| 20260830224403 | 60 | 40 | 1.0 | 2.0 | 0.00 | 0.00 | 0.00 | 94 | 1023.2 |
| 20260830224303 | 60 | 41 | 1.0 | 2.0 | 0.00 | 0.00 | 0.00 | 94 | 1023.2 |
| 20260830224203 | 60 | 43 | 1.0 | 2.0 | 0.00 | 0.00 | 0.00 | 94 | 1023.3 |
| 20260830224103 | 60 | 42 | 0.0 | 2.0 | 0.00 | 0.00 | 0.00 | 94 | 1023.2 |
| 20260830224003 | 60 | 36 | 0.0 | 2.0 | 0.00 | 0.00 | 0.00 | 94 | 1023.3 |
| 20260830223903 | 60 | 30 | 0.0 | 2.0 | 0.00 | 0.00 | 0.00 | 94 | 1023.3 |
| 20260830223803 | 60 | 27 | 0.0 | 2.0 | 0.00 | 0.00 | 0.00 | 94 | 1023.3 |
| 20260830223703 | 60 | 7 | 0.0 | 1.0 | 0.00 | 0.00 | 0.00 | 93 | 1023.3 |
| 20260830223603 | 60 | 7 | 0.0 | 1.0 | 0.00 | 0.00 | 0.00 | 93 | 1023.1 |
| 20260830223503 | 60 | 8 | 0.0 | 1.0 | 0.00 | 0.00 | 0.00 | 93 | 1023.1 |
| 20260830223403 | 60 | 8 | 0.0 | 1.0 | 0.00 | 0.00 | 0.00 | 93 | 1023.2 |
| 20260830223303 | 60 | 8 | 0.0 | 1.0 | 0.00 | 0.00 | 0.00 | 93 | 1023.2 |
| 20260830223203 | 60 | 14 | 1.0 | 1.0 | 0.00 | 0.00 | 0.00 | 93 | 1023.1 |
| 20260830223103 | 60 | 14 | 1.0 | 1.0 | 0.00 | 0.00 | 0.00 | 93 | 1023.1 |
| 20260830223003 | 60 | 14 | 1.0 | 1.0 | 0.00 | 0.00 | 0.00 | 93 | 1023.1 |
| 20260830222903 | 60 | 15 | 1.0 | 1.0 | 0.00 | 0.00 | 0.00 | 93 | 1023.1 |
| 20260830222803 | 60 | 16 | 1.0 | 1.0 | 0.00 | 0.00 | 0.00 | 93 | 1023.3 |
| 20260830222703 | 60 | 15 | 1.0 | 1.0 | 0.00 | 0.00 | 0.00 | 92 | 1023.3 |
| 20260830222603 | 60 | 15 | 1.0 | 1.0 | 0.00 | 0.00 | 0.00 | 92 | 1023.3 |
| 20260830222503 | 60 | 13 | 1.0 | 1.0 | 0.00 | 0.00 | 0.00 | 92 | 1023.5 |
| 20260830222403 | 60 | 14 | 0.0 | 1.0 | 0.00 | 0.00 | 0.00 | 92 | 1023.5 |
| 20260830222306 | 60 | 15 | 0.0 | 1.0 | 0.00 | 0.00 | 0.00 | 92 | 1023.5 |
| 20260830222224 | 60 | 13 | 0.0 | 1.0 | 0.00 | 0.00 | 0.00 | 92 | 1023.2 |
| 20260830222103 | 60 | 5 | 0.0 | 1.0 | 0.00 | 0.00 | 0.00 | 92 | 1023.3 |
| 20260830222003 | 60 | 2 | 0.0 | 1.0 | 0.00 | 0.00 | 0.00 | 92 | 1023.3 |
| 20260830221903 | 60 | 2 | 0.0 | 1.0 | 0.00 | 0.00 | 0.00 | 92 | 1023.3 |
| 20260830221803 | 60 | 2 | 0.0 | 1.0 | 0.00 | 0.00 | 0.00 | 91 | 1023.2 |
| 20260830221724 | 60 | 2 | 0.0 | 1.0 | 0.00 | 0.00 | 0.00 | 91 | 1023.2 |
| 20260830221603 | 60 | 2 | 0.0 | 1.0 | 0.00 | 0.00 | 0.00 | 91 | 1023.1 |
| 20260830221503 | 60 | 0 | 0.0 | 0.0 | 0.00 | 0.00 | 0.00 | 91 | 1023.1 |
| 20260830221403 | 60 | 0 | 0.0 | 0.0 | 0.00 | 0.00 | 0.00 | 90 | 1023.1 |
| 20260830221303 | 60 | 0 | 0.0 | 0.0 | 0.00 | 0.00 | 0.00 | 90 | 1023.0 |
| 20260830221203 | 60 | 0 | 0.0 | 0.0 | 0.00 | 0.00 | 0.00 | 90 | 1023.3 |
| 20260830221124 | 60 | 0 | 0.0 | 0.0 | 0.00 | 0.00 | 0.00 | 90 | 1023.1 |
| 20260830221003 | 60 | 0 | 0.0 | 0.0 | 0.00 | 0.00 | 0.00 | 90 | 1023.2 |
| 20260830220903 | 60 | 0 | 0.0 | 0.0 | 0.00 | 0.00 | 0.00 | 90 | 1023.2 |
| 20260830220803 | 61 | 0 | 0.0 | 0.0 | 0.00 | 0.00 | 0.00 | 90 | 1023.2 |
| 20260830220703 | 61 | 0 | 0.0 | 0.0 | 0.00 | 0.00 | 0.00 | 90 | 1023.2 |
| 20260830220603 | 61 | 0 | 0.0 | 0.0 | 0.00 | 0.00 | 0.00 | 90 | 1023.1 |
| 20260830220503 | 61 | 0 | 0.0 | 0.0 | 0.00 | 0.00 | 0.00 | 90 | 1023.1 |
| 20260830220403 | 61 | 0 | 0.0 | 0.0 | 0.00 | 0.00 | 0.00 | 90 | 1023.1 |
| 20260830220303 | 61 | 0 | 0.0 | 0.0 | 0.00 | 0.00 | 0.00 | 89 | 1023.0 |
| 20260830220203 | 61 | 0 | 0.0 | 0.0 | 0.00 | 0.00 | 0.00 | 89 | 1023.2 |
| 20260830220003 | 61 | 0 | 0.0 | 0.0 | 0.00 | 0.00 | 0.00 | 89 | 1023.1 |
| 20260830215903 | 61 | 0 | 0.0 | 0.0 | 0.00 | 0.00 | 0.00 | 89 | 1023.1 |
| 20260830215803 | 61 | 0 | 0.0 | 0.0 | 0.00 | 0.00 | 0.00 | 89 | 1023.1 |
| 20260830215703 | 61 | 0 | 0.0 | 0.0 | 0.00 | 0.00 | 0.00 | 89 | 1023.0 |
| 20260830215603 | 61 | 0 | 0.0 | 0.0 | 0.00 | 0.00 | 0.00 | 89 | 1023.1 |
| 20260830215503 | 61 | 2 | 0.0 | 1.0 | 0.00 | 0.00 | 0.00 | 89 | 1023.1 |
| 20260830215403 | 61 | 2 | 0.0 | 1.0 | 0.00 | 0.00 | 0.00 | 89 | 1023.2 |
| 20260830215305 | 61 | 2 | 0.0 | 1.0 | 0.00 | 0.00 | 0.00 | 89 | 1023.1 |
| 20260830215224 | 61 | 2 | 0.0 | 1.0 | 0.00 | 0.00 | 0.00 | 88 | 1023.1 |
| 20260830215103 | 61 | 2 | 0.0 | 1.0 | 0.00 | 0.00 | 0.00 | 88 | 1023.1 |
| 20260830215003 | 61 | 2 | 0.0 | 1.0 | 0.00 | 0.00 | 0.00 | 88 | 1023.1 |
| 20260830214903 | 62 | 2 | 0.0 | 1.0 | 0.00 | 0.00 | 0.00 | 88 | 1023.1 |
| 20260830214803 | 62 | 2 | 0.0 | 1.0 | 0.00 | 0.00 | 0.00 | 88 | 1023.1 |
| 20260830214703 | 62 | 2 | 0.0 | 1.0 | 0.00 | 0.00 | 0.00 | 88 | 1023.1 |
| 20260830214603 | 62 | 2 | 0.0 | 1.0 | 0.00 | 0.00 | 0.00 | 88 | 1023.1 |
| 20260830214503 | 62 | 2 | 0.0 | 1.0 | 0.00 | 0.00 | 0.00 | 88 | 1023.1 |
| 20260830214403 | 62 | 0 | 0.0 | 0.0 | 0.00 | 0.00 | 0.00 | 88 | 1023.1 |
| 20260830214303 | 62 | 0 | 0.0 | 0.0 | 0.00 | 0.00 | 0.00 | 88 | 1023.1 |
| 20260830214203 | 62 | 0 | 0.0 | 0.0 | 0.00 | 0.00 | 0.00 | 88 | 1023.1 |
| 20260830214124 | 62 | 0 | 0.0 | 0.0 | 0.00 | 0.00 | 0.00 | 88 | 1023.0 |
| 20260830214003 | 62 | 0 | 0.0 | 0.0 | 0.00 | 0.00 | 0.00 | 88 | 1023.0 |
| 20260830213903 | 61 | 0 | 0.0 | 0.0 | 0.00 | 0.00 | 0.00 | 88 | 1023.0 |
| 20260830213803 | 61 | 0 | 0.0 | 0.0 | 0.00 | 0.00 | 0.00 | 88 | 1023.1 |
| 20260830213724 | 62 | 0 | 0.0 | 0.0 | 0.00 | 0.00 | 0.00 | 88 | 1023.0 |
| 20260830213603 | 62 | 0 | 0.0 | 0.0 | 0.00 | 0.00 | 0.00 | 87 | 1023.0 |
| 20260830213524 | 62 | 0 | 0.0 | 0.0 | 0.00 | 0.00 | 0.00 | 87 | 1023.0 |
| 20260830213424 | 62 | 0 | 0.0 | 0.0 | 0.00 | 0.00 | 0.00 | 87 | 1023.1 |
| 20260830213303 | 62 | 0 | 0.0 | 0.0 | 0.00 | 0.00 | 0.00 | 87 | 1023.0 |
| 20260830213203 | 62 | 0 | 0.0 | 0.0 | 0.00 | 0.00 | 0.00 | 87 | 1023.0 |
| 20260830213103 | 62 | 0 | 0.0 | 0.0 | 0.00 | 0.00 | 0.00 | 86 | 1023.0 |
| 20260830213003 | 62 | 0 | 0.0 | 0.0 | 0.00 | 0.00 | 0.00 | 86 | 1023.0 |
| 20260830212903 | 62 | 0 | 0.0 | 0.0 | 0.00 | 0.00 | 0.00 | 86 | 1022.9 |
| 20260830212803 | 62 | 2 | 0.0 | 1.0 | 0.00 | 0.00 | 0.00 | 86 | 1023.0 |
| 20260830212703 | 62 | 2 | 0.0 | 1.0 | 0.00 | 0.00 | 0.00 | 86 | 1022.9 |
| 20260830212603 | 63 | 2 | 0.0 | 1.0 | 0.00 | 0.00 | 0.00 | 86 | 1023.1 |
| 20260830212503 | 63 | 2 | 0.0 | 1.0 | 0.00 | 0.01 | 0.00 | 86 | 1022.9 |
| 20260830212403 | 63 | 2 | 0.0 | 1.0 | 0.00 | 0.01 | 0.00 | 85 | 1023.1 |
| 20260830212305 | 63 | 2 | 1.0 | 1.0 | 0.00 | 0.01 | 0.00 | 85 | 1022.8 |
| 20260830212203 | 63 | 2 | 1.0 | 1.0 | 0.00 | 0.01 | 0.00 | 85 | 1022.9 |
| 20260830212103 | 63 | 2 | 1.0 | 1.0 | 0.00 | 0.01 | 0.00 | 85 | 1022.9 |
| 20260830212024 | 63 | 2 | 1.0 | 1.0 | 0.00 | 0.01 | 0.00 | 85 | 1023.1 |
| 20260830211903 | 63 | 2 | 1.0 | 1.0 | 0.00 | 0.01 | 0.00 | 85 | 1023.0 |
| 20260830211824 | 63 | 2 | 1.0 | 1.0 | 0.00 | 0.01 | 0.00 | 85 | 1023.1 |
| 20260830211703 | 63 | 2 | 1.0 | 1.0 | 0.00 | 0.01 | 0.00 | 85 | 1022.9 |
| 20260830211603 | 63 | 2 | 1.0 | 1.0 | 0.00 | 0.01 | 0.00 | 84 | 1022.9 |
| 20260830211503 | 63 | 2 | 1.0 | 1.0 | 0.00 | 0.01 | 0.00 | 84 | 1023.0 |
| 20260830211403 | 63 | 2 | 1.0 | 1.0 | 0.00 | 0.01 | 0.00 | 84 | 1022.9 |
| 20260830211303 | 64 | 2 | 1.0 | 1.0 | 0.00 | 0.01 | 0.00 | 84 | 1023.0 |
| 20260830211203 | 64 | 2 | 1.0 | 1.0 | 0.00 | 0.01 | 0.00 | 84 | 1023.0 |
| 20260830211103 | 64 | 2 | 1.0 | 1.0 | 0.00 | 0.01 | 0.00 | 83 | 1022.8 |
| 20260830211003 | 64 | 2 | 0.0 | 1.0 | 0.00 | 0.01 | 0.00 | 83 | 1023.0 |
| 20260830210903 | 64 | 2 | 0.0 | 1.0 | 0.00 | 0.01 | 0.00 | 83 | 1022.9 |
| 20260830210803 | 64 | 2 | 0.0 | 1.0 | 0.00 | 0.01 | 0.00 | 83 | 1023.0 |
| 20260830210724 | 64 | 2 | 0.0 | 1.0 | 0.00 | 0.01 | 0.00 | 83 | 1023.0 |
| 20260830210603 | 64 | 2 | 0.0 | 1.0 | 0.00 | 0.01 | 0.00 | 83 | 1022.8 |
| 20260830210503 | 64 | 2 | 0.0 | 1.0 | 0.00 | 0.01 | 0.00 | 83 | 1022.8 |
| 20260830210403 | 64 | 0 | 0.0 | 0.0 | 0.00 | 0.01 | 0.00 | 83 | 1022.8 |
| 20260830210303 | 64 | 0 | 0.0 | 0.0 | 0.00 | 0.01 | 0.00 | 83 | 1023.0 |
| 20260830210224 | 64 | 2 | 0.0 | 1.0 | 0.00 | 0.01 | 0.00 | 83 | 1022.9 |
| 20260830210124 | 64 | 2 | 0.0 | 1.0 | 0.00 | 0.01 | 0.00 | 83 | 1022.7 |
| 20260830210024 | 64 | 2 | 0.0 | 1.0 | 0.00 | 0.01 | 0.00 | 83 | 1022.8 |
| 20260830205903 | 64 | 2 | 0.0 | 1.0 | 0.00 | 0.01 | 0.00 | 83 | 1022.8 |
| 20260830205824 | 64 | 2 | 0.0 | 1.0 | 0.00 | 0.01 | 0.00 | 83 | 1022.6 |
| 20260830205703 | 64 | 2 | 0.0 | 1.0 | 0.00 | 0.01 | 0.00 | 83 | 1023.0 |
| 20260830205603 | 64 | 2 | 0.0 | 1.0 | 0.00 | 0.01 | 0.00 | 83 | 1022.8 |
| 20260830205503 | 64 | 2 | 0.0 | 1.0 | 0.00 | 0.01 | 0.00 | 83 | 1022.8 |
| 20260830205403 | 64 | 2 | 0.0 | 1.0 | 0.00 | 0.01 | 0.00 | 83 | 1022.9 |
| 20260830205324 | 64 | 2 | 0.0 | 1.0 | 0.00 | 0.01 | 0.00 | 83 | 1022.9 |
| 20260830205203 | 64 | 2 | 0.0 | 1.0 | 0.00 | 0.01 | 0.00 | 82 | 1022.7 |
| 20260830205103 | 64 | 2 | 0.0 | 1.0 | 0.00 | 0.01 | 0.00 | 82 | 1022.7 |
| 20260830205003 | 64 | 0 | 0.0 | 0.0 | 0.00 | 0.01 | 0.00 | 82 | 1022.8 |
| 20260830204903 | 64 | 0 | 0.0 | 0.0 | 0.00 | 0.01 | 0.00 | 82 | 1022.7 |
| 20260830204803 | 64 | 0 | 0.0 | 0.0 | 0.00 | 0.01 | 0.00 | 82 | 1022.7 |
| 20260830204703 | 64 | 0 | 0.0 | 0.0 | 0.00 | 0.01 | 0.00 | 82 | 1022.7 |
| 20260830204603 | 64 | 0 | 0.0 | 0.0 | 0.00 | 0.01 | 0.00 | 82 | 1022.7 |
| 20260830204503 | 64 | 0 | 0.0 | 0.0 | 0.00 | 0.01 | 0.00 | 82 | 1022.7 |
| 20260830204403 | 64 | 0 | 0.0 | 0.0 | 0.00 | 0.01 | 0.00 | 82 | 1022.5 |
| 20260830204324 | 64 | 0 | 0.0 | 0.0 | 0.00 | 0.01 | 0.00 | 82 | 1022.7 |
| 20260830204203 | 64 | 1 | 0.0 | 1.0 | 0.00 | 0.01 | 0.00 | 82 | 1022.6 |
| 20260830204103 | 65 | 359 | 0.0 | 1.0 | 0.00 | 0.01 | 0.00 | 81 | 1022.7 |
| 20260830204003 | 65 | 358 | 0.0 | 1.0 | 0.00 | 0.01 | 0.00 | 81 | 1022.6 |
| 20260830203903 | 65 | 359 | 0.0 | 1.0 | 0.00 | 0.01 | 0.00 | 81 | 1022.6 |
| 20260830203803 | 65 | 359 | 0.0 | 1.0 | 0.00 | 0.01 | 0.00 | 81 | 1022.5 |
| 20260830203703 | 65 | 359 | 0.0 | 1.0 | 0.00 | 0.01 | 0.00 | 81 | 1022.5 |
| 20260830203603 | 65 | 360 | 0.0 | 1.0 | 0.00 | 0.01 | 0.00 | 81 | 1022.6 |
| 20260830203503 | 65 | 360 | 0.0 | 1.0 | 0.00 | 0.01 | 0.00 | 81 | 1022.5 |
| 20260830203403 | 65 | 1 | 0.0 | 1.0 | 0.00 | 0.01 | 0.00 | 80 | 1022.5 |
| 20260830203324 | 65 | 1 | 0.0 | 1.0 | 0.00 | 0.01 | 0.00 | 80 | 1022.6 |
| 20260830203203 | 65 | 357 | 1.0 | 2.0 | 0.00 | 0.01 | 0.00 | 80 | 1022.5 |
| 20260830203103 | 65 | 354 | 1.0 | 2.0 | 0.00 | 0.01 | 0.00 | 81 | 1022.5 |
| 20260830203003 | 65 | 354 | 1.0 | 2.0 | 0.00 | 0.01 | 0.00 | 81 | 1022.6 |
| 20260830202903 | 65 | 353 | 0.0 | 2.0 | 0.00 | 0.01 | 0.00 | 81 | 1022.5 |
| 20260830202803 | 65 | 353 | 0.0 | 2.0 | 0.00 | 0.01 | 0.00 | 81 | 1022.5 |
| 20260830202703 | 65 | 353 | 0.0 | 2.0 | 0.00 | 0.01 | 0.00 | 81 | 1022.5 |
| 20260830202603 | 64 | 352 | 0.0 | 2.0 | 0.00 | 0.01 | 0.00 | 81 | 1022.4 |
| 20260830202503 | 64 | 352 | 0.0 | 2.0 | 0.00 | 0.01 | 0.00 | 81 | 1022.4 |
| 20260830202403 | 64 | 350 | 0.0 | 2.0 | 0.00 | 0.01 | 0.00 | 81 | 1022.5 |
| 20260830202324 | 64 | 350 | 0.0 | 2.0 | 0.00 | 0.01 | 0.00 | 82 | 1022.5 |
| 20260830202203 | 64 | 350 | 0.0 | 2.0 | 0.00 | 0.01 | 0.00 | 82 | 1022.5 |
| 20260830202103 | 64 | 356 | 0.0 | 1.0 | 0.00 | 0.01 | 0.00 | 82 | 1022.6 |
| 20260830202003 | 64 | 1 | 0.0 | 1.0 | 0.00 | 0.01 | 0.00 | 82 | 1022.3 |
| 20260830201903 | 64 | 2 | 0.0 | 1.0 | 0.00 | 0.01 | 0.00 | 82 | 1022.6 |
| 20260830201803 | 64 | 2 | 0.0 | 1.0 | 0.00 | 0.01 | 0.00 | 82 | 1022.4 |
| 20260830201703 | 64 | 2 | 0.0 | 1.0 | 0.00 | 0.01 | 0.00 | 82 | 1022.3 |
| 20260830201603 | 64 | 3 | 0.0 | 1.0 | 0.00 | 0.01 | 0.00 | 83 | 1022.3 |
| 20260830201503 | 64 | 3 | 0.0 | 1.0 | 0.00 | 0.01 | 0.00 | 83 | 1022.3 |
| 20260830201403 | 64 | 3 | 0.0 | 1.0 | 0.00 | 0.01 | 0.00 | 83 | 1022.1 |
| 20260830201303 | 64 | 3 | 0.0 | 1.0 | 0.00 | 0.01 | 0.00 | 83 | 1022.3 |
| 20260830201224 | 64 | 3 | 0.0 | 1.0 | 0.00 | 0.01 | 0.00 | 83 | 1022.3 |
| 20260830201103 | 64 | 2 | 0.0 | 1.0 | 0.00 | 0.01 | 0.00 | 84 | 1022.3 |
| 20260830201003 | 64 | 2 | 0.0 | 1.0 | 0.00 | 0.01 | 0.00 | 84 | 1022.3 |
| 20260830200903 | 64 | 2 | 0.0 | 1.0 | 0.00 | 0.01 | 0.00 | 84 | 1022.2 |
| 20260830200803 | 64 | 357 | 0.0 | 1.0 | 0.00 | 0.01 | 0.00 | 84 | 1022.1 |
| 20260830200703 | 64 | 357 | 0.0 | 1.0 | 0.00 | 0.01 | 0.00 | 84 | 1022.3 |
| 20260830200606 | 65 | 360 | 0.0 | 1.0 | 0.00 | 0.01 | 0.00 | 83 | 1022.0 |
| 20260830200303 | 65 | 360 | 0.0 | 1.0 | 0.00 | 0.01 | 0.00 | 83 | 1022.0 |
| 20260830200203 | 65 | 360 | 0.0 | 1.0 | 0.00 | 0.01 | 0.00 | 83 | 1022.1 |
| 20260830200103 | 65 | 360 | 0.0 | 1.0 | 0.00 | 0.01 | 0.00 | 83 | 1022.0 |
| 20260830200003 | 65 | 360 | 0.0 | 1.0 | 0.00 | 0.01 | 0.00 | 83 | 1022.1 |
| 20260830195903 | 65 | 359 | 0.0 | 1.0 | 0.00 | 0.01 | 0.00 | 83 | 1022.0 |
| 20260830195824 | 65 | 359 | 0.0 | 1.0 | 0.00 | 0.01 | 0.00 | 83 | 1022.0 |
| 20260830195703 | 65 | 360 | 0.0 | 1.0 | 0.00 | 0.01 | 0.00 | 83 | 1021.9 |
| 20260830195624 | 65 | 354 | 0.0 | 2.0 | 0.00 | 0.01 | 0.00 | 83 | 1022.1 |
| 20260830195503 | 65 | 354 | 0.0 | 2.0 | 0.00 | 0.01 | 0.00 | 83 | 1022.0 |
| 20260830195403 | 65 | 355 | 0.0 | 2.0 | 0.00 | 0.01 | 0.00 | 83 | 1022.1 |
| 20260830195305 | 65 | 351 | 1.0 | 2.0 | 0.00 | 0.01 | 0.00 | 83 | 1021.9 |
| 20260830195224 | 65 | 350 | 1.0 | 2.0 | 0.00 | 0.01 | 0.00 | 83 | 1022.1 |
| 20260830195124 | 65 | 350 | 1.0 | 2.0 | 0.00 | 0.01 | 0.00 | 83 | 1022.0 |
| 20260830195003 | 66 | 352 | 1.0 | 2.0 | 0.00 | 0.01 | 0.00 | 83 | 1021.9 |
| 20260830194903 | 66 | 349 | 1.0 | 2.0 | 0.00 | 0.01 | 0.00 | 82 | 1021.8 |
| 20260830194803 | 66 | 349 | 1.0 | 2.0 | 0.00 | 0.01 | 0.00 | 82 | 1022.0 |
| 20260830194703 | 66 | 348 | 1.0 | 2.0 | 0.00 | 0.01 | 0.00 | 82 | 1021.9 |
| 20260830194603 | 66 | 352 | 1.0 | 2.0 | 0.00 | 0.01 | 0.00 | 82 | 1021.9 |
| 20260830194503 | 66 | 352 | 1.0 | 2.0 | 0.00 | 0.01 | 0.00 | 82 | 1022.0 |
| 20260830194403 | 66 | 351 | 1.0 | 2.0 | 0.00 | 0.01 | 0.00 | 82 | 1021.9 |
| 20260830194303 | 66 | 352 | 1.0 | 2.0 | 0.00 | 0.01 | 0.00 | 82 | 1021.9 |
| 20260830194203 | 66 | 357 | 1.0 | 2.0 | 0.00 | 0.01 | 0.00 | 81 | 1021.8 |
| 20260830194103 | 66 | 352 | 1.0 | 2.0 | 0.00 | 0.01 | 0.00 | 81 | 1021.9 |
| 20260830194003 | 66 | 351 | 1.0 | 2.0 | 0.00 | 0.01 | 0.00 | 81 | 1021.8 |
| 20260830193903 | 66 | 351 | 1.0 | 2.0 | 0.00 | 0.01 | 0.00 | 82 | 1021.6 |
| 20260830193803 | 66 | 356 | 1.0 | 2.0 | 0.00 | 0.01 | 0.00 | 82 | 1021.7 |
| 20260830193703 | 66 | 356 | 1.0 | 2.0 | 0.00 | 0.01 | 0.00 | 82 | 1021.7 |
| 20260830193603 | 66 | 356 | 1.0 | 2.0 | 0.00 | 0.01 | 0.00 | 82 | 1021.9 |
| 20260830193503 | 66 | 355 | 1.0 | 2.0 | 0.00 | 0.01 | 0.00 | 82 | 1021.7 |
| 20260830193403 | 66 | 354 | 1.0 | 2.0 | 0.00 | 0.01 | 0.00 | 82 | 1021.6 |
| 20260830193303 | 66 | 355 | 1.0 | 2.0 | 0.00 | 0.01 | 0.00 | 82 | 1021.6 |
| 20260830193203 | 66 | 354 | 1.0 | 2.0 | 0.00 | 0.01 | 0.00 | 81 | 1021.7 |
| 20260830193124 | 66 | 352 | 1.0 | 2.0 | 0.00 | 0.01 | 0.00 | 82 | 1021.8 |
| 20260830193003 | 66 | 348 | 1.0 | 2.0 | 0.00 | 0.01 | 0.00 | 81 | 1021.7 |
| 20260830192904 | 66 | 345 | 1.0 | 2.0 | 0.00 | 0.01 | 0.00 | 81 | 1021.8 |
| 20260830192803 | 66 | 344 | 1.0 | 2.0 | 0.00 | 0.01 | 0.00 | 81 | 1021.5 |
| 20260830192703 | 66 | 344 | 1.0 | 2.0 | 0.00 | 0.01 | 0.00 | 81 | 1021.6 |
| 20260830192603 | 66 | 344 | 1.0 | 2.0 | 0.00 | 0.01 | 0.00 | 81 | 1021.6 |
| 20260830192524 | 67 | 345 | 1.0 | 2.0 | 0.00 | 0.01 | 0.00 | 81 | 1021.7 |
| 20260830192403 | 67 | 344 | 1.0 | 2.0 | 0.00 | 0.01 | 0.00 | 81 | 1021.7 |
| 20260830192305 | 67 | 346 | 1.0 | 2.0 | 0.00 | 0.01 | 0.00 | 81 | 1021.5 |
| 20260830192203 | 67 | 347 | 1.0 | 2.0 | 0.00 | 0.01 | 0.00 | 81 | 1021.7 |
| 20260830192103 | 67 | 348 | 1.0 | 2.0 | 0.00 | 0.01 | 0.00 | 81 | 1021.6 |
| 20260830192024 | 67 | 349 | 1.0 | 2.0 | 0.00 | 0.01 | 0.00 | 81 | 1021.6 |
| 20260830191903 | 67 | 354 | 1.0 | 2.0 | 0.00 | 0.01 | 0.00 | 81 | 1021.8 |
| 20260830191824 | 67 | 352 | 1.0 | 2.0 | 0.00 | 0.01 | 0.00 | 81 | 1021.6 |
| 20260830191724 | 67 | 353 | 1.0 | 2.0 | 0.00 | 0.01 | 0.00 | 81 | 1021.5 |
| 20260830191603 | 67 | 352 | 1.0 | 2.0 | 0.00 | 0.01 | 0.00 | 81 | 1021.4 |
| 20260830191503 | 67 | 353 | 1.0 | 2.0 | 0.00 | 0.01 | 0.00 | 81 | 1021.5 |
| 20260830191403 | 67 | 348 | 1.0 | 2.0 | 0.00 | 0.01 | 0.00 | 81 | 1021.4 |
| 20260830191303 | 67 | 348 | 1.0 | 2.0 | 0.00 | 0.01 | 0.00 | 81 | 1021.4 |
| 20260830191203 | 67 | 347 | 1.0 | 2.0 | 0.00 | 0.01 | 0.00 | 81 | 1021.6 |
| 20260830191103 | 67 | 347 | 1.0 | 2.0 | 0.00 | 0.01 | 0.00 | 81 | 1021.5 |
| 20260830191003 | 67 | 347 | 1.0 | 2.0 | 0.00 | 0.01 | 0.00 | 80 | 1021.4 |
| 20260830190924 | 67 | 345 | 2.0 | 2.0 | 0.00 | 0.01 | 0.00 | 80 | 1021.5 |
| 20260830190803 | 67 | 345 | 2.0 | 2.0 | 0.00 | 0.01 | 0.00 | 80 | 1021.5 |
| 20260830190724 | 67 | 347 | 2.0 | 2.0 | 0.00 | 0.01 | 0.00 | 80 | 1021.5 |
| 20260830190604 | 67 | 342 | 2.0 | 3.0 | 0.00 | 0.01 | 0.00 | 80 | 1021.5 |
| 20260830190524 | 67 | 341 | 2.0 | 3.0 | 0.00 | 0.01 | 0.00 | 80 | 1021.4 |
| 20260830190424 | 67 | 341 | 2.0 | 3.0 | 0.00 | 0.01 | 0.00 | 80 | 1021.4 |
| 20260830190303 | 67 | 337 | 2.0 | 3.0 | 0.00 | 0.01 | 0.00 | 80 | 1021.6 |
| 20260830190204 | 67 | 334 | 2.0 | 3.0 | 0.00 | 0.01 | 0.00 | 80 | 1021.5 |
| 20260830190103 | 67 | 332 | 2.0 | 3.0 | 0.00 | 0.01 | 0.00 | 79 | 1021.4 |
| 20260830190003 | 67 | 334 | 2.0 | 3.0 | 0.00 | 0.01 | 0.00 | 79 | 1021.3 |
| 20260830185903 | 67 | 330 | 2.0 | 3.0 | 0.00 | 0.01 | 0.00 | 79 | 1021.4 |
| 20260830185803 | 67 | 321 | 2.0 | 3.0 | 0.00 | 0.01 | 0.00 | 79 | 1021.5 |
| 20260830185703 | 68 | 318 | 2.0 | 4.0 | 0.00 | 0.01 | 0.00 | 79 | 1021.5 |
| 20260830185624 | 68 | 318 | 2.0 | 4.0 | 0.00 | 0.01 | 0.00 | 79 | 1021.4 |
| 20260830185503 | 68 | 310 | 3.0 | 6.0 | 0.00 | 0.01 | 0.00 | 79 | 1021.4 |
| 20260830185403 | 68 | 309 | 3.0 | 6.0 | 0.00 | 0.01 | 0.00 | 79 | 1021.4 |
| 20260830185306 | 68 | 304 | 3.0 | 7.0 | 0.00 | 0.01 | 0.00 | 78 | 1021.3 |
| 20260830185203 | 68 | 300 | 3.0 | 7.0 | 0.00 | 0.01 | 0.00 | 78 | 1021.4 |
| 20260830185104 | 68 | 296 | 3.0 | 7.0 | 0.00 | 0.01 | 0.00 | 78 | 1021.3 |
| 20260830185003 | 68 | 291 | 3.0 | 7.0 | 0.00 | 0.01 | 0.00 | 78 | 1021.3 |
| 20260830184903 | 68 | 290 | 3.0 | 7.0 | 0.00 | 0.01 | 0.00 | 78 | 1021.4 |
| 20260830184803 | 68 | 289 | 3.0 | 7.0 | 0.00 | 0.01 | 0.00 | 77 | 1021.3 |
| 20260830184703 | 68 | 293 | 3.0 | 7.0 | 0.00 | 0.01 | 0.00 | 77 | 1021.5 |
| 20260830184624 | 69 | 298 | 3.0 | 7.0 | 0.00 | 0.01 | 0.00 | 77 | 1021.3 |
| 20260830184504 | 69 | 296 | 3.0 | 7.0 | 0.00 | 0.01 | 0.00 | 77 | 1021.3 |
| 20260830184403 | 69 | 292 | 3.0 | 7.0 | 0.00 | 0.01 | 0.00 | 77 | 1021.4 |
| 20260830184303 | 69 | 295 | 3.0 | 7.0 | 0.00 | 0.01 | 0.00 | 77 | 1021.3 |
| 20260830184203 | 69 | 295 | 3.0 | 6.0 | 0.00 | 0.01 | 0.00 | 77 | 1021.4 |
| 20260830184103 | 69 | 304 | 3.0 | 6.0 | 0.00 | 0.01 | 0.00 | 77 | 1021.3 |
| 20260830184003 | 69 | 305 | 3.0 | 6.0 | 0.00 | 0.01 | 0.00 | 77 | 1021.3 |
| 20260830183903 | 69 | 311 | 3.0 | 6.0 | 0.00 | 0.01 | 0.00 | 76 | 1021.2 |
| 20260830183803 | 69 | 312 | 3.0 | 6.0 | 0.00 | 0.01 | 0.00 | 76 | 1021.4 |
| 20260830183703 | 69 | 307 | 3.0 | 7.0 | 0.00 | 0.01 | 0.00 | 76 | 1021.2 |
| 20260830183603 | 69 | 304 | 3.0 | 7.0 | 0.00 | 0.01 | 0.00 | 76 | 1021.4 |
| 20260830183503 | 69 | 296 | 3.0 | 7.0 | 0.00 | 0.01 | 0.00 | 76 | 1021.3 |
| 20260830183403 | 69 | 310 | 3.0 | 7.0 | 0.00 | 0.01 | 0.00 | 76 | 1021.3 |
| 20260830183303 | 70 | 303 | 3.0 | 7.0 | 0.00 | 0.01 | 0.00 | 76 | 1021.3 |
| 20260830183224 | 70 | 303 | 3.0 | 7.0 | 0.00 | 0.01 | 0.00 | 76 | 1021.2 |
| 20260830183103 | 70 | 311 | 3.0 | 7.0 | 0.00 | 0.01 | 0.00 | 75 | 1021.2 |
| 20260830183003 | 70 | 307 | 3.0 | 7.0 | 0.00 | 0.01 | 0.00 | 75 | 1021.2 |
| 20260830182924 | 70 | 304 | 3.0 | 7.0 | 0.00 | 0.01 | 0.00 | 75 | 1021.3 |
| 20260830182803 | 70 | 305 | 3.0 | 7.0 | 0.00 | 0.01 | 0.00 | 75 | 1021.0 |
| 20260830182703 | 70 | 299 | 3.0 | 7.0 | 0.00 | 0.01 | 0.00 | 75 | 1021.1 |
| 20260830182603 | 70 | 307 | 3.0 | 7.0 | 0.00 | 0.01 | 0.00 | 75 | 1021.1 |
| 20260830182503 | 70 | 310 | 3.0 | 7.0 | 0.00 | 0.01 | 0.00 | 75 | 1021.2 |
| 20260830182403 | 70 | 306 | 3.0 | 7.0 | 0.00 | 0.01 | 0.00 | 75 | 1021.1 |
| 20260830182306 | 70 | 306 | 3.0 | 6.0 | 0.00 | 0.01 | 0.00 | 74 | 1021.2 |
| 20260830182203 | 70 | 300 | 3.0 | 8.0 | 0.00 | 0.01 | 0.00 | 74 | 1021.3 |
| 20260830182103 | 70 | 300 | 3.0 | 8.0 | 0.00 | 0.01 | 0.00 | 75 | 1021.2 |
| 20260830182003 | 70 | 304 | 3.0 | 8.0 | 0.00 | 0.01 | 0.00 | 75 | 1021.1 |
| 20260830181903 | 70 | 298 | 4.0 | 10.0 | 0.00 | 0.01 | 0.00 | 74 | 1021.0 |
| 20260830181803 | 70 | 303 | 4.0 | 10.0 | 0.00 | 0.01 | 0.00 | 74 | 1021.2 |
| 20260830181703 | 71 | 305 | 4.0 | 10.0 | 0.00 | 0.01 | 0.00 | 74 | 1021.0 |
| 20260830181603 | 71 | 307 | 4.0 | 10.0 | 0.00 | 0.01 | 0.00 | 74 | 1021.2 |
| 20260830181503 | 70 | 303 | 4.0 | 10.0 | 0.00 | 0.01 | 0.00 | 74 | 1021.1 |
| 20260830181403 | 70 | 305 | 4.0 | 10.0 | 0.00 | 0.01 | 0.00 | 74 | 1021.1 |
| 20260830181324 | 70 | 304 | 4.0 | 10.0 | 0.00 | 0.01 | 0.00 | 74 | 1021.1 |
| 20260830181203 | 70 | 308 | 4.0 | 10.0 | 0.00 | 0.01 | 0.00 | 74 | 1021.1 |
| 20260830181124 | 71 | 312 | 4.0 | 10.0 | 0.00 | 0.01 | 0.00 | 74 | 1021.2 |
| 20260830181025 | 71 | 310 | 4.0 | 10.0 | 0.00 | 0.01 | 0.00 | 73 | 1021.1 |
| 20260830180903 | 71 | 315 | 3.0 | 8.0 | 0.00 | 0.01 | 0.00 | 74 | 1021.2 |
| 20260830180803 | 71 | 309 | 3.0 | 8.0 | 0.00 | 0.01 | 0.00 | 74 | 1021.1 |
| 20260830180724 | 70 | 305 | 3.0 | 8.0 | 0.00 | 0.01 | 0.00 | 74 | 1020.9 |
| 20260830180603 | 70 | 300 | 3.0 | 8.0 | 0.00 | 0.01 | 0.00 | 74 | 1021.0 |
| 20260830180503 | 70 | 302 | 3.0 | 8.0 | 0.00 | 0.01 | 0.00 | 74 | 1021.0 |
| 20260830180403 | 71 | 300 | 3.0 | 8.0 | 0.00 | 0.01 | 0.00 | 74 | 1021.1 |
| 20260830180303 | 71 | 295 | 3.0 | 8.0 | 0.00 | 0.01 | 0.00 | 73 | 1021.1 |
| 20260830180224 | 71 | 288 | 3.0 | 8.0 | 0.00 | 0.01 | 0.00 | 73 | 1021.1 |
| 20260830180103 | 71 | 290 | 3.0 | 8.0 | 0.00 | 0.01 | 0.00 | 73 | 1020.9 |
| 20260830180003 | 71 | 290 | 3.0 | 8.0 | 0.00 | 0.01 | 0.00 | 73 | 1020.9 |
| 20260830175903 | 71 | 290 | 3.0 | 8.0 | 0.00 | 0.01 | 0.00 | 73 | 1021.1 |
| 20260830175803 | 71 | 295 | 3.0 | 8.0 | 0.00 | 0.01 | 0.00 | 72 | 1021.0 |
| 20260830175703 | 71 | 299 | 3.0 | 8.0 | 0.00 | 0.01 | 0.00 | 72 | 1020.9 |
| 20260830175603 | 71 | 308 | 3.0 | 7.0 | 0.00 | 0.01 | 0.00 | 73 | 1020.9 |
| 20260830175524 | 71 | 299 | 3.0 | 7.0 | 0.00 | 0.01 | 0.00 | 73 | 1021.0 |
| 20260830175403 | 71 | 283 | 4.0 | 7.0 | 0.00 | 0.01 | 0.00 | 72 | 1021.0 |
| 20260830175305 | 71 | 287 | 4.0 | 7.0 | 0.00 | 0.01 | 0.00 | 72 | 1021.1 |
| 20260830175203 | 71 | 291 | 4.0 | 7.0 | 0.00 | 0.01 | 0.00 | 72 | 1020.9 |
| 20260830175103 | 71 | 294 | 4.0 | 7.0 | 0.00 | 0.01 | 0.00 | 72 | 1020.8 |
| 20260830175003 | 71 | 302 | 4.0 | 7.0 | 0.00 | 0.01 | 0.00 | 72 | 1021.0 |
| 20260830174903 | 71 | 307 | 4.0 | 7.0 | 0.00 | 0.01 | 0.00 | 72 | 1020.8 |
| 20260830174803 | 71 | 308 | 4.0 | 7.0 | 0.00 | 0.01 | 0.00 | 72 | 1020.9 |
| 20260830174703 | 71 | 307 | 4.0 | 7.0 | 0.00 | 0.01 | 0.00 | 72 | 1020.8 |
| 20260830174603 | 71 | 304 | 4.0 | 7.0 | 0.00 | 0.01 | 0.00 | 72 | 1020.9 |
| 20260830174503 | 72 | 313 | 4.0 | 7.0 | 0.00 | 0.01 | 0.00 | 72 | 1021.0 |
| 20260830174403 | 72 | 322 | 4.0 | 7.0 | 0.00 | 0.01 | 0.00 | 71 | 1020.8 |
| 20260830174303 | 72 | 338 | 4.0 | 8.0 | 0.00 | 0.01 | 0.00 | 72 | 1020.8 |
| 20260830174203 | 72 | 335 | 4.0 | 8.0 | 0.00 | 0.01 | 0.00 | 72 | 1021.0 |
| 20260830174103 | 72 | 327 | 4.0 | 8.0 | 0.00 | 0.01 | 0.00 | 71 | 1021.0 |
| 20260830174003 | 72 | 325 | 4.0 | 8.0 | 0.00 | 0.01 | 0.00 | 71 | 1020.7 |
| 20260830173903 | 72 | 325 | 4.0 | 8.0 | 0.00 | 0.01 | 0.00 | 71 | 1021.0 |
| 20260830173803 | 72 | 312 | 4.0 | 8.0 | 0.00 | 0.01 | 0.00 | 70 | 1020.8 |
| 20260830173703 | 72 | 313 | 4.0 | 8.0 | 0.00 | 0.01 | 0.00 | 70 | 1020.8 |
| 20260830173603 | 72 | 314 | 4.0 | 8.0 | 0.00 | 0.01 | 0.00 | 71 | 1020.9 |
| 20260830173503 | 72 | 309 | 5.0 | 8.0 | 0.00 | 0.01 | 0.00 | 71 | 1020.8 |
| 20260830173403 | 72 | 303 | 5.0 | 8.0 | 0.00 | 0.01 | 0.00 | 70 | 1020.9 |
| 20260830173303 | 72 | 296 | 4.0 | 8.0 | 0.00 | 0.01 | 0.00 | 70 | 1020.8 |
| 20260830173224 | 72 | 294 | 4.0 | 8.0 | 0.00 | 0.01 | 0.00 | 70 | 1020.7 |
| 20260830173124 | 72 | 290 | 4.0 | 8.0 | 0.00 | 0.01 | 0.00 | 70 | 1020.7 |
| 20260830173003 | 72 | 291 | 4.0 | 8.0 | 0.00 | 0.01 | 0.00 | 70 | 1020.8 |
| 20260830172903 | 72 | 290 | 4.0 | 8.0 | 0.00 | 0.01 | 0.00 | 70 | 1020.9 |
| 20260830172803 | 72 | 294 | 4.0 | 8.0 | 0.00 | 0.01 | 0.00 | 70 | 1020.6 |
| 20260830172703 | 72 | 296 | 4.0 | 8.0 | 0.00 | 0.01 | 0.00 | 70 | 1020.7 |
| 20260830172603 | 72 | 304 | 4.0 | 8.0 | 0.00 | 0.01 | 0.00 | 70 | 1020.7 |
| 20260830172503 | 72 | 306 | 4.0 | 7.0 | 0.00 | 0.01 | 0.00 | 70 | 1020.7 |
| 20260830172403 | 72 | 311 | 4.0 | 7.0 | 0.00 | 0.01 | 0.00 | 70 | 1020.7 |
| 20260830172306 | 72 | 318 | 4.0 | 7.0 | 0.00 | 0.01 | 0.00 | 70 | 1020.8 |
| 20260830172203 | 73 | 321 | 4.0 | 7.0 | 0.00 | 0.01 | 0.00 | 70 | 1020.6 |
| 20260830172103 | 73 | 325 | 4.0 | 7.0 | 0.00 | 0.01 | 0.00 | 70 | 1020.7 |
| 20260830172003 | 73 | 322 | 4.0 | 7.0 | 0.00 | 0.01 | 0.00 | 70 | 1020.6 |
| 20260830171924 | 73 | 325 | 4.0 | 7.0 | 0.00 | 0.01 | 0.00 | 70 | 1020.5 |
| 20260830171803 | 73 | 316 | 4.0 | 7.0 | 0.00 | 0.01 | 0.00 | 70 | 1020.7 |
| 20260830171703 | 73 | 311 | 4.0 | 7.0 | 0.00 | 0.01 | 0.00 | 70 | 1020.8 |
| 20260830171603 | 73 | 307 | 4.0 | 7.0 | 0.00 | 0.01 | 0.00 | 70 | 1020.7 |
| 20260830171524 | 73 | 301 | 4.0 | 7.0 | 0.00 | 0.01 | 0.00 | 70 | 1020.7 |
| 20260830171404 | 73 | 305 | 4.0 | 7.0 | 0.00 | 0.01 | 0.00 | 69 | 1020.5 |
| 20260830171324 | 73 | 295 | 3.0 | 7.0 | 0.00 | 0.01 | 0.00 | 69 | 1020.6 |
| 20260830171203 | 73 | 294 | 3.0 | 7.0 | 0.00 | 0.01 | 0.00 | 69 | 1020.7 |
| 20260830171103 | 73 | 295 | 3.0 | 7.0 | 0.00 | 0.01 | 0.00 | 69 | 1020.7 |
| 20260830171003 | 73 | 301 | 3.0 | 7.0 | 0.00 | 0.01 | 0.00 | 69 | 1020.5 |
| 20260830170903 | 74 | 311 | 3.0 | 8.0 | 0.00 | 0.01 | 0.00 | 69 | 1020.4 |
| 20260830170803 | 74 | 321 | 3.0 | 8.0 | 0.00 | 0.01 | 0.00 | 69 | 1020.6 |
| 20260830170703 | 74 | 318 | 3.0 | 8.0 | 0.00 | 0.01 | 0.00 | 68 | 1020.6 |
| 20260830170603 | 74 | 321 | 4.0 | 10.0 | 0.00 | 0.01 | 0.00 | 68 | 1020.5 |
| 20260830170524 | 74 | 321 | 4.0 | 10.0 | 0.00 | 0.01 | 0.00 | 68 | 1020.5 |
| 20260830170424 | 74 | 319 | 4.0 | 10.0 | 0.00 | 0.01 | 0.00 | 69 | 1020.5 |
| 20260830170303 | 74 | 322 | 4.0 | 10.0 | 0.00 | 0.01 | 0.00 | 68 | 1020.6 |
| 20260830170203 | 73 | 328 | 3.0 | 10.0 | 0.00 | 0.01 | 0.00 | 69 | 1020.6 |
| 20260830170124 | 73 | 326 | 3.0 | 10.0 | 0.00 | 0.01 | 0.00 | 69 | 1020.5 |
| 20260830170003 | 73 | 323 | 4.0 | 10.0 | 0.00 | 0.01 | 0.00 | 69 | 1020.6 |
| 20260830165903 | 73 | 318 | 4.0 | 10.0 | 0.00 | 0.01 | 0.00 | 69 | 1020.6 |
| 20260830165803 | 74 | 311 | 4.0 | 10.0 | 0.00 | 0.01 | 0.00 | 68 | 1020.7 |
| 20260830165703 | 74 | 313 | 4.0 | 10.0 | 0.00 | 0.01 | 0.00 | 67 | 1020.4 |
| 20260830165624 | 74 | 310 | 4.0 | 10.0 | 0.00 | 0.01 | 0.00 | 67 | 1020.6 |
| 20260830165503 | 74 | 316 | 3.0 | 8.0 | 0.00 | 0.01 | 0.00 | 67 | 1020.5 |
| 20260830165403 | 74 | 308 | 3.0 | 7.0 | 0.00 | 0.01 | 0.00 | 68 | 1020.7 |
| 20260830165324 | 74 | 307 | 3.0 | 7.0 | 0.00 | 0.01 | 0.00 | 68 | 1020.4 |
| 20260830165203 | 74 | 310 | 3.0 | 7.0 | 0.00 | 0.01 | 0.00 | 69 | 1020.5 |
| 20260830165124 | 74 | 305 | 4.0 | 7.0 | 0.00 | 0.01 | 0.00 | 68 | 1020.7 |
| 20260830165003 | 74 | 306 | 4.0 | 7.0 | 0.00 | 0.01 | 0.00 | 68 | 1020.5 |
| 20260830164924 | 74 | 302 | 4.0 | 6.0 | 0.00 | 0.01 | 0.00 | 67 | 1020.4 |
| 20260830164803 | 74 | 303 | 3.0 | 6.0 | 0.00 | 0.01 | 0.00 | 68 | 1020.3 |
| 20260830164703 | 74 | 305 | 4.0 | 7.0 | 0.00 | 0.01 | 0.00 | 68 | 1020.4 |
| 20260830164604 | 74 | 313 | 3.0 | 7.0 | 0.00 | 0.01 | 0.00 | 68 | 1020.5 |
| 20260830164503 | 74 | 305 | 4.0 | 7.0 | 0.00 | 0.01 | 0.00 | 68 | 1020.5 |
| 20260830164403 | 74 | 306 | 4.0 | 7.0 | 0.00 | 0.01 | 0.00 | 68 | 1020.6 |
| 20260830164324 | 74 | 314 | 4.0 | 7.0 | 0.00 | 0.01 | 0.00 | 68 | 1020.4 |
| 20260830164203 | 74 | 312 | 4.0 | 7.0 | 0.00 | 0.01 | 0.00 | 67 | 1020.3 |
| 20260830164103 | 74 | 320 | 3.0 | 7.0 | 0.00 | 0.01 | 0.00 | 68 | 1020.4 |
| 20260830164003 | 74 | 323 | 3.0 | 7.0 | 0.00 | 0.01 | 0.00 | 67 | 1020.4 |
| 20260830163903 | 74 | 329 | 3.0 | 7.0 | 0.00 | 0.01 | 0.00 | 67 | 1020.3 |
| 20260830163824 | 74 | 336 | 3.0 | 7.0 | 0.00 | 0.01 | 0.00 | 68 | 1020.3 |
| 20260830163703 | 74 | 345 | 3.0 | 6.0 | 0.00 | 0.01 | 0.00 | 68 | 1020.4 |
| 20260830163603 | 75 | 343 | 3.0 | 6.0 | 0.00 | 0.01 | 0.00 | 66 | 1020.4 |
| 20260830163503 | 75 | 341 | 3.0 | 6.0 | 0.00 | 0.01 | 0.00 | 66 | 1020.2 |
| 20260830163424 | 75 | 334 | 3.0 | 7.0 | 0.00 | 0.01 | 0.00 | 67 | 1020.4 |
| 20260830163303 | 74 | 327 | 4.0 | 7.0 | 0.00 | 0.01 | 0.00 | 66 | 1020.5 |
| 20260830163203 | 74 | 325 | 4.0 | 7.0 | 0.00 | 0.01 | 0.00 | 67 | 1020.3 |
| 20260830163103 | 74 | 314 | 4.0 | 7.0 | 0.00 | 0.01 | 0.00 | 67 | 1020.3 |
| 20260830163003 | 74 | 301 | 4.0 | 7.0 | 0.00 | 0.01 | 0.00 | 67 | 1020.3 |
| 20260830162903 | 74 | 290 | 5.0 | 7.0 | 0.00 | 0.01 | 0.00 | 67 | 1020.5 |
| 20260830162503 | 74 | 285 | 5.0 | 7.0 | 0.00 | 0.01 | 0.00 | 68 | 1020.3 |
| 20260830162403 | 74 | 281 | 5.0 | 7.0 | 0.00 | 0.01 | 0.00 | 67 | 1020.4 |
| 20260830162306 | 74 | 285 | 5.0 | 8.0 | 0.00 | 0.01 | 0.00 | 67 | 1020.4 |
| 20260830162203 | 74 | 286 | 5.0 | 8.0 | 0.00 | 0.01 | 0.00 | 67 | 1020.4 |
| 20260830162103 | 74 | 285 | 4.0 | 8.0 | 0.00 | 0.01 | 0.00 | 67 | 1020.5 |
| 20260830162003 | 74 | 286 | 4.0 | 8.0 | 0.00 | 0.01 | 0.00 | 67 | 1020.4 |
| 20260830161924 | 74 | 294 | 4.0 | 8.0 | 0.00 | 0.01 | 0.00 | 67 | 1020.4 |
| 20260830161803 | 74 | 292 | 4.0 | 8.0 | 0.00 | 0.01 | 0.00 | 67 | 1020.2 |
| 20260830161703 | 74 | 297 | 4.0 | 8.0 | 0.00 | 0.01 | 0.00 | 67 | 1020.3 |
| 20260830161603 | 74 | 298 | 4.0 | 8.0 | 0.00 | 0.01 | 0.00 | 66 | 1020.2 |
| 20260830161503 | 74 | 295 | 4.0 | 8.0 | 0.00 | 0.01 | 0.00 | 67 | 1020.3 |
| 20260830161424 | 75 | 295 | 4.0 | 8.0 | 0.00 | 0.01 | 0.00 | 67 | 1020.4 |
| 20260830161303 | 75 | 299 | 3.0 | 7.0 | 0.00 | 0.01 | 0.00 | 67 | 1020.3 |
| 20260830161203 | 75 | 296 | 3.0 | 7.0 | 0.00 | 0.01 | 0.00 | 66 | 1020.3 |
| 20260830161103 | 75 | 298 | 4.0 | 7.0 | 0.00 | 0.01 | 0.00 | 66 | 1020.3 |
| 20260830161004 | 75 | 298 | 4.0 | 7.0 | 0.00 | 0.01 | 0.00 | 66 | 1020.3 |
| 20260830160903 | 75 | 301 | 4.0 | 7.0 | 0.00 | 0.01 | 0.00 | 67 | 1020.2 |
| 20260830160803 | 75 | 312 | 3.0 | 7.0 | 0.00 | 0.01 | 0.00 | 66 | 1020.3 |
| 20260830160703 | 74 | 312 | 3.0 | 7.0 | 0.00 | 0.01 | 0.00 | 68 | 1020.3 |
| 20260830160603 | 74 | 315 | 4.0 | 7.0 | 0.00 | 0.01 | 0.00 | 67 | 1020.2 |
| 20260830160503 | 74 | 322 | 3.0 | 7.0 | 0.00 | 0.01 | 0.00 | 67 | 1020.3 |
| 20260830160403 | 74 | 321 | 3.0 | 7.0 | 0.00 | 0.01 | 0.00 | 67 | 1020.2 |
| 20260830160303 | 75 | 335 | 3.0 | 7.0 | 0.00 | 0.01 | 0.00 | 68 | 1020.3 |
| 20260830160203 | 75 | 339 | 3.0 | 7.0 | 0.00 | 0.01 | 0.00 | 67 | 1020.2 |
| 20260830160103 | 75 | 335 | 3.0 | 8.0 | 0.00 | 0.01 | 0.00 | 66 | 1020.3 |
| 20260830160003 | 75 | 312 | 4.0 | 10.0 | 0.00 | 0.01 | 0.00 | 66 | 1020.3 |
| 20260830155903 | 75 | 308 | 4.0 | 10.0 | 0.00 | 0.01 | 0.00 | 66 | 1020.3 |
| 20260830155824 | 75 | 301 | 3.0 | 10.0 | 0.00 | 0.01 | 0.00 | 66 | 1020.4 |
| 20260830155703 | 75 | 301 | 4.0 | 10.0 | 0.00 | 0.01 | 0.00 | 66 | 1020.3 |
| 20260830155603 | 75 | 295 | 4.0 | 10.0 | 0.00 | 0.01 | 0.00 | 66 | 1020.3 |
| 20260830155503 | 75 | 297 | 4.0 | 10.0 | 0.00 | 0.01 | 0.00 | 67 | 1020.3 |
| 20260830155403 | 74 | 288 | 4.0 | 10.0 | 0.00 | 0.01 | 0.00 | 68 | 1020.1 |
| 20260830155306 | 74 | 284 | 4.0 | 10.0 | 0.00 | 0.01 | 0.00 | 67 | 1020.3 |
| 20260830155203 | 74 | 288 | 4.0 | 10.0 | 0.00 | 0.01 | 0.00 | 67 | 1020.2 |
| 20260830155124 | 75 | 288 | 4.0 | 10.0 | 0.00 | 0.01 | 0.00 | 66 | 1020.1 |
| 20260830155003 | 75 | 296 | 4.0 | 10.0 | 0.00 | 0.01 | 0.00 | 66 | 1020.3 |
| 20260830154924 | 75 | 315 | 3.0 | 10.0 | 0.00 | 0.01 | 0.00 | 66 | 1020.4 |
| 20260830154824 | 75 | 313 | 3.0 | 10.0 | 0.00 | 0.01 | 0.00 | 66 | 1020.3 |
| 20260830154724 | 75 | 320 | 3.0 | 10.0 | 0.00 | 0.01 | 0.00 | 66 | 1020.5 |
| 20260830154603 | 75 | 316 | 3.0 | 8.0 | 0.00 | 0.01 | 0.00 | 66 | 1020.4 |
| 20260830154524 | 75 | 313 | 3.0 | 8.0 | 0.00 | 0.01 | 0.00 | 66 | 1020.4 |
| 20260830154403 | 75 | 315 | 3.0 | 8.0 | 0.00 | 0.01 | 0.00 | 66 | 1020.3 |
| 20260830154325 | 75 | 316 | 4.0 | 8.0 | 0.00 | 0.01 | 0.00 | 67 | 1020.4 |
| 20260830154203 | 75 | 311 | 4.0 | 8.0 | 0.00 | 0.01 | 0.00 | 66 | 1020.3 |
| 20260830154103 | 75 | 309 | 4.0 | 8.0 | 0.00 | 0.01 | 0.00 | 66 | 1020.3 |
| 20260830154003 | 75 | 314 | 4.0 | 8.0 | 0.00 | 0.01 | 0.00 | 66 | 1020.1 |
| 20260830153924 | 75 | 311 | 4.0 | 8.0 | 0.00 | 0.01 | 0.00 | 65 | 1020.3 |
| 20260830153803 | 75 | 308 | 3.0 | 8.0 | 0.00 | 0.01 | 0.00 | 66 | 1020.5 |
| 20260830153703 | 75 | 304 | 3.0 | 8.0 | 0.00 | 0.01 | 0.00 | 66 | 1020.2 |
| 20260830153624 | 75 | 302 | 3.0 | 8.0 | 0.00 | 0.01 | 0.00 | 65 | 1020.4 |
| 20260830153503 | 75 | 313 | 3.0 | 8.0 | 0.00 | 0.01 | 0.00 | 65 | 1020.3 |
| 20260830153403 | 76 | 318 | 3.0 | 8.0 | 0.00 | 0.01 | 0.00 | 65 | 1020.2 |
| 20260830153303 | 76 | 323 | 3.0 | 8.0 | 0.00 | 0.01 | 0.00 | 66 | 1020.3 |
| 20260830153224 | 76 | 322 | 3.0 | 8.0 | 0.00 | 0.01 | 0.00 | 65 | 1020.5 |
| 20260830153103 | 76 | 324 | 3.0 | 8.0 | 0.00 | 0.01 | 0.00 | 64 | 1020.3 |
| 20260830153003 | 76 | 328 | 3.0 | 8.0 | 0.00 | 0.01 | 0.00 | 65 | 1020.1 |
| 20260830152903 | 76 | 328 | 3.0 | 8.0 | 0.00 | 0.01 | 0.00 | 66 | 1020.2 |
| 20260830152803 | 76 | 331 | 3.0 | 8.0 | 0.00 | 0.01 | 0.00 | 65 | 1020.1 |
| 20260830152724 | 76 | 328 | 3.0 | 8.0 | 0.00 | 0.01 | 0.00 | 65 | 1020.3 |
| 20260830152603 | 76 | 330 | 3.0 | 8.0 | 0.00 | 0.01 | 0.00 | 66 | 1020.2 |
| 20260830152503 | 76 | 325 | 3.0 | 8.0 | 0.00 | 0.01 | 0.00 | 65 | 1020.3 |
| 20260830152403 | 76 | 323 | 3.0 | 7.0 | 0.00 | 0.01 | 0.00 | 65 | 1020.2 |
| 20260830152305 | 76 | 322 | 3.0 | 7.0 | 0.00 | 0.01 | 0.00 | 65 | 1020.1 |
| 20260830152203 | 76 | 335 | 3.0 | 7.0 | 0.00 | 0.01 | 0.00 | 64 | 1020.1 |
| 20260830152124 | 76 | 337 | 3.0 | 7.0 | 0.00 | 0.01 | 0.00 | 65 | 1020.1 |
| 20260830152024 | 76 | 333 | 3.0 | 7.0 | 0.00 | 0.01 | 0.00 | 65 | 1020.4 |
| 20260830151904 | 76 | 328 | 3.0 | 7.0 | 0.00 | 0.01 | 0.00 | 65 | 1020.2 |
| 20260830151803 | 76 | 322 | 3.0 | 7.0 | 0.00 | 0.01 | 0.00 | 67 | 1020.1 |
| 20260830151703 | 76 | 325 | 3.0 | 7.0 | 0.00 | 0.01 | 0.00 | 65 | 1020.4 |
| 20260830151603 | 76 | 324 | 3.0 | 7.0 | 0.00 | 0.01 | 0.00 | 64 | 1020.1 |
| 20260830151503 | 76 | 320 | 3.0 | 7.0 | 0.00 | 0.01 | 0.00 | 64 | 1020.3 |
| 20260830151403 | 76 | 323 | 3.0 | 7.0 | 0.00 | 0.01 | 0.00 | 64 | 1020.1 |
| 20260830151303 | 76 | 324 | 3.0 | 7.0 | 0.00 | 0.01 | 0.00 | 65 | 1020.3 |
| 20260830151203 | 76 | 320 | 3.0 | 7.0 | 0.00 | 0.01 | 0.00 | 65 | 1020.3 |
| 20260830151103 | 75 | 316 | 3.0 | 7.0 | 0.00 | 0.01 | 0.00 | 65 | 1020.3 |
| 20260830151003 | 75 | 319 | 3.0 | 7.0 | 0.00 | 0.01 | 0.00 | 66 | 1020.2 |
| 20260830150903 | 75 | 322 | 3.0 | 7.0 | 0.00 | 0.01 | 0.00 | 66 | 1020.2 |
| 20260830150824 | 75 | 323 | 3.0 | 7.0 | 0.00 | 0.01 | 0.00 | 66 | 1020.3 |
| 20260830150703 | 75 | 332 | 3.0 | 9.0 | 0.00 | 0.01 | 0.00 | 66 | 1020.3 |
| 20260830150604 | 75 | 330 | 3.0 | 9.0 | 0.00 | 0.01 | 0.00 | 65 | 1020.2 |
| 20260830150524 | 76 | 333 | 3.0 | 9.0 | 0.00 | 0.01 | 0.00 | 65 | 1020.0 |
| 20260830150403 | 76 | 339 | 3.0 | 9.0 | 0.00 | 0.01 | 0.00 | 64 | 1020.2 |
| 20260830150324 | 76 | 334 | 3.0 | 9.0 | 0.00 | 0.01 | 0.00 | 64 | 1020.4 |
| 20260830150203 | 76 | 331 | 3.0 | 9.0 | 0.00 | 0.01 | 0.00 | 65 | 1020.2 |
| 20260830150003 | 75 | 327 | 3.0 | 9.0 | 0.00 | 0.01 | 0.00 | 66 | 1020.3 |
| 20260830145903 | 75 | 326 | 4.0 | 9.0 | 0.00 | 0.01 | 0.00 | 66 | 1020.2 |
| 20260830145824 | 75 | 329 | 4.0 | 9.0 | 0.00 | 0.01 | 0.00 | 66 | 1020.4 |
| 20260830145703 | 76 | 319 | 4.0 | 9.0 | 0.00 | 0.01 | 0.00 | 65 | 1020.1 |
| 20260830145625 | 76 | 319 | 4.0 | 9.0 | 0.00 | 0.01 | 0.00 | 67 | 1020.3 |
| 20260830145524 | 75 | 320 | 4.0 | 9.0 | 0.00 | 0.01 | 0.00 | 66 | 1020.3 |
| 20260830145403 | 75 | 307 | 4.0 | 9.0 | 0.00 | 0.01 | 0.00 | 65 | 1020.3 |
| 20260830145306 | 75 | 310 | 4.0 | 9.0 | 0.00 | 0.01 | 0.00 | 66 | 1020.5 |
| 20260830145204 | 75 | 310 | 4.0 | 9.0 | 0.00 | 0.01 | 0.00 | 65 | 1020.2 |
| 20260830145103 | 75 | 305 | 4.0 | 9.0 | 0.00 | 0.01 | 0.00 | 66 | 1020.4 |
| 20260830145003 | 75 | 308 | 4.0 | 9.0 | 0.00 | 0.01 | 0.00 | 66 | 1020.1 |
| 20260830144903 | 75 | 313 | 4.0 | 8.0 | 0.00 | 0.01 | 0.00 | 65 | 1020.1 |
| 20260830144803 | 75 | 311 | 3.0 | 8.0 | 0.00 | 0.01 | 0.00 | 65 | 1020.3 |
| 20260830144703 | 75 | 308 | 3.0 | 8.0 | 0.00 | 0.01 | 0.00 | 66 | 1020.1 |
| 20260830144603 | 76 | 292 | 4.0 | 10.0 | 0.00 | 0.01 | 0.00 | 65 | 1020.2 |
| 20260830144503 | 76 | 281 | 4.0 | 10.0 | 0.00 | 0.01 | 0.00 | 65 | 1020.2 |
| 20260830144403 | 76 | 280 | 4.0 | 10.0 | 0.00 | 0.01 | 0.00 | 65 | 1020.2 |
| 20260830144303 | 76 | 285 | 4.0 | 10.0 | 0.00 | 0.01 | 0.00 | 64 | 1020.2 |
| 20260830144203 | 76 | 295 | 4.0 | 10.0 | 0.00 | 0.01 | 0.00 | 65 | 1020.1 |
| 20260830144103 | 75 | 287 | 4.0 | 10.0 | 0.00 | 0.01 | 0.00 | 65 | 1020.3 |
| 20260830144003 | 75 | 282 | 4.0 | 10.0 | 0.00 | 0.01 | 0.00 | 66 | 1020.4 |
| 20260830143903 | 75 | 280 | 4.0 | 10.0 | 0.00 | 0.01 | 0.00 | 66 | 1020.2 |
| 20260830143826 | 75 | 284 | 4.0 | 10.0 | 0.00 | 0.01 | 0.00 | 67 | 1020.1 |
| 20260830143703 | 75 | 284 | 4.0 | 10.0 | 0.00 | 0.01 | 0.00 | 65 | 1020.3 |
| 20260830143603 | 76 | 291 | 4.0 | 8.0 | 0.00 | 0.01 | 0.00 | 65 | 1020.2 |
| 20260830143503 | 76 | 306 | 3.0 | 8.0 | 0.00 | 0.01 | 0.00 | 64 | 1020.3 |
| 20260830143403 | 77 | 311 | 3.0 | 8.0 | 0.00 | 0.01 | 0.00 | 63 | 1020.2 |
| 20260830143303 | 77 | 311 | 3.0 | 7.0 | 0.00 | 0.01 | 0.00 | 63 | 1020.3 |
| 20260830143203 | 77 | 297 | 3.0 | 6.0 | 0.00 | 0.01 | 0.00 | 64 | 1020.2 |
| 20260830143103 | 77 | 304 | 3.0 | 6.0 | 0.00 | 0.01 | 0.00 | 65 | 1020.1 |
| 20260830143003 | 77 | 304 | 3.0 | 6.0 | 0.00 | 0.01 | 0.00 | 63 | 1020.2 |
| 20260830142903 | 77 | 310 | 3.0 | 6.0 | 0.00 | 0.01 | 0.00 | 64 | 1020.1 |
| 20260830142803 | 77 | 313 | 3.0 | 6.0 | 0.00 | 0.01 | 0.00 | 62 | 1020.3 |
| 20260830142703 | 76 | 310 | 3.0 | 6.0 | 0.00 | 0.01 | 0.00 | 65 | 1020.1 |
| 20260830142603 | 76 | 311 | 3.0 | 8.0 | 0.00 | 0.01 | 0.00 | 65 | 1020.2 |
| 20260830142503 | 76 | 311 | 3.0 | 8.0 | 0.00 | 0.01 | 0.00 | 65 | 1020.2 |
| 20260830142424 | 76 | 311 | 3.0 | 8.0 | 0.00 | 0.01 | 0.00 | 64 | 1020.2 |
| 20260830142305 | 76 | 322 | 3.0 | 8.0 | 0.00 | 0.01 | 0.00 | 64 | 1020.2 |
| 20260830142203 | 76 | 328 | 3.0 | 8.0 | 0.00 | 0.01 | 0.00 | 64 | 1020.2 |
| 20260830142103 | 76 | 320 | 3.0 | 8.0 | 0.00 | 0.01 | 0.00 | 64 | 1020.2 |
| 20260830142003 | 76 | 325 | 3.0 | 8.0 | 0.00 | 0.01 | 0.00 | 64 | 1020.1 |
| 20260830141903 | 75 | 321 | 3.0 | 8.0 | 0.00 | 0.01 | 0.00 | 67 | 1020.1 |
| 20260830141803 | 75 | 306 | 4.0 | 10.0 | 0.00 | 0.01 | 0.00 | 67 | 1020.4 |
| 20260830141703 | 75 | 300 | 4.0 | 10.0 | 0.00 | 0.01 | 0.00 | 65 | 1020.1 |
| 20260830141603 | 75 | 295 | 4.0 | 10.0 | 0.00 | 0.01 | 0.00 | 66 | 1020.1 |
| 20260830141503 | 75 | 296 | 4.0 | 10.0 | 0.00 | 0.01 | 0.00 | 65 | 1020.2 |
| 20260830141403 | 75 | 299 | 4.0 | 10.0 | 0.00 | 0.01 | 0.00 | 65 | 1020.3 |
| 20260830141303 | 75 | 301 | 4.0 | 10.0 | 0.00 | 0.01 | 0.00 | 66 | 1020.3 |
| 20260830141203 | 75 | 300 | 4.0 | 10.0 | 0.00 | 0.01 | 0.00 | 65 | 1020.3 |
| 20260830141103 | 75 | 304 | 4.0 | 10.0 | 0.00 | 0.01 | 0.00 | 65 | 1020.3 |
| 20260830141003 | 75 | 308 | 3.0 | 10.0 | 0.00 | 0.01 | 0.00 | 65 | 1020.2 |
| 20260830140923 | 75 | 316 | 3.0 | 10.0 | 0.00 | 0.01 | 0.00 | 65 | 1020.2 |
| 20260830140803 | 76 | 327 | 3.0 | 8.0 | 0.00 | 0.01 | 0.00 | 64 | 1020.1 |
| 20260830140703 | 76 | 327 | 4.0 | 9.0 | 0.00 | 0.01 | 0.00 | 65 | 1020.4 |
| 20260830140602 | 76 | 330 | 4.0 | 9.0 | 0.00 | 0.01 | 0.00 | 66 | 1020.2 |
| 20260830140524 | 76 | 328 | 4.0 | 9.0 | 0.00 | 0.01 | 0.00 | 67 | 1020.3 |
| 20260830140403 | 76 | 331 | 4.0 | 9.0 | 0.00 | 0.01 | 0.00 | 66 | 1020.2 |
| 20260830140302 | 76 | 331 | 4.0 | 9.0 | 0.00 | 0.01 | 0.00 | 67 | 1020.3 |
| 20260830140203 | 75 | 329 | 4.0 | 9.0 | 0.00 | 0.01 | 0.00 | 67 | 1020.1 |
| 20260830140024 | 75 | 330 | 5.0 | 9.0 | 0.00 | 0.01 | 0.00 | 67 | 1020.2 |
| 20260830135902 | 75 | 329 | 5.0 | 9.0 | 0.00 | 0.01 | 0.00 | 68 | 1020.2 |
| 20260830135802 | 75 | 334 | 5.0 | 9.0 | 0.00 | 0.01 | 0.00 | 66 | 1020.3 |
| 20260830135703 | 75 | 334 | 5.0 | 9.0 | 0.00 | 0.01 | 0.00 | 66 | 1020.3 |
| 20260830135603 | 75 | 336 | 4.0 | 9.0 | 0.00 | 0.01 | 0.00 | 67 | 1020.2 |
| 20260830135502 | 75 | 336 | 3.0 | 9.0 | 0.00 | 0.01 | 0.00 | 68 | 1020.2 |
| 20260830135403 | 75 | 342 | 4.0 | 9.0 | 0.00 | 0.01 | 0.00 | 68 | 1020.2 |
| 20260830135324 | 76 | 339 | 3.0 | 9.0 | 0.00 | 0.01 | 0.00 | 65 | 1020.2 |
| 20260830135203 | 76 | 340 | 2.0 | 7.0 | 0.00 | 0.01 | 0.00 | 65 | 1020.3 |
| 20260830135103 | 77 | 339 | 2.0 | 7.0 | 0.00 | 0.01 | 0.00 | 64 | 1020.2 |
| 20260830135003 | 77 | 327 | 1.0 | 7.0 | 0.00 | 0.01 | 0.00 | 63 | 1020.2 |
| 20260830134903 | 78 | 325 | 1.0 | 6.0 | 0.00 | 0.01 | 0.00 | 63 | 1020.2 |
| 20260830134803 | 78 | 350 | 0.0 | 4.0 | 0.00 | 0.01 | 0.00 | 64 | 1020.2 |
| 20260830134703 | 77 | 325 | 0.0 | 1.0 | 0.00 | 0.01 | 0.00 | 63 | 1020.1 |
| 20260830134603 | 77 | 325 | 0.0 | 1.0 | 0.00 | 0.01 | 0.00 | 66 | 1020.3 |
| 20260830134524 | 77 | 324 | 0.0 | 1.0 | 0.00 | 0.01 | 0.00 | 64 | 1020.2 |
| 20260830134403 | 77 | 334 | 0.0 | 1.0 | 0.00 | 0.01 | 0.00 | 63 | 1020.3 |
| 20260830134303 | 77 | 334 | 0.0 | 1.0 | 0.00 | 0.01 | 0.00 | 63 | 1020.4 |
| 20260830134203 | 78 | 334 | 0.0 | 1.0 | 0.00 | 0.01 | 0.00 | 62 | 1020.3 |
| 20260830134103 | 78 | 334 | 0.0 | 1.0 | 0.00 | 0.01 | 0.00 | 62 | 1020.2 |
| 20260830134002 | 78 | 330 | 0.0 | 1.0 | 0.00 | 0.01 | 0.00 | 63 | 1020.2 |
| 20260830133903 | 78 | 330 | 0.0 | 1.0 | 0.00 | 0.01 | 0.00 | 62 | 1020.0 |
| 20260830133803 | 77 | 324 | 0.0 | 1.0 | 0.00 | 0.01 | 0.00 | 63 | 1020.2 |
| 20260830133703 | 77 | 323 | 0.0 | 1.0 | 0.00 | 0.01 | 0.00 | 63 | 1020.3 |
| 20260830133603 | 77 | 328 | 0.0 | 1.0 | 0.00 | 0.01 | 0.00 | 64 | 1020.4 |
| 20260830133503 | 77 | 333 | 0.0 | 1.0 | 0.00 | 0.01 | 0.00 | 61 | 1020.4 |
| 20260830133403 | 77 | 346 | 0.0 | 1.0 | 0.00 | 0.01 | 0.00 | 63 | 1020.3 |
| 20260830133303 | 77 | 330 | 0.0 | 1.0 | 0.00 | 0.01 | 0.00 | 62 | 1020.2 |
| 20260830133202 | 77 | 325 | 0.0 | 1.0 | 0.00 | 0.01 | 0.00 | 63 | 1020.2 |
| 20260830133103 | 77 | 325 | 0.0 | 1.0 | 0.00 | 0.01 | 0.00 | 62 | 1020.2 |
| 20260830133003 | 77 | 327 | 0.0 | 1.0 | 0.00 | 0.01 | 0.00 | 62 | 1020.3 |
| 20260830132903 | 76 | 330 | 0.0 | 1.0 | 0.00 | 0.01 | 0.00 | 64 | 1020.2 |
| 20260830132803 | 76 | 330 | 0.0 | 1.0 | 0.00 | 0.01 | 0.00 | 63 | 1020.3 |
| 20260830132703 | 76 | 330 | 0.0 | 1.0 | 0.00 | 0.01 | 0.00 | 63 | 1020.2 |
| 20260830132603 | 76 | 329 | 0.0 | 1.0 | 0.00 | 0.01 | 0.00 | 62 | 1020.3 |
| 20260830132503 | 76 | 325 | 0.0 | 1.0 | 0.00 | 0.01 | 0.00 | 63 | 1020.3 |
| 20260830132424 | 76 | 316 | 0.0 | 1.0 | 0.00 | 0.01 | 0.00 | 64 | 1020.3 |
| 20260830132324 | 76 | 317 | 0.0 | 1.0 | 0.00 | 0.01 | 0.00 | 63 | 1020.3 |
| 20260830132224 | 76 | 316 | 0.0 | 1.0 | 0.00 | 0.01 | 0.00 | 63 | 1020.4 |
| 20260830132124 | 76 | 306 | 0.0 | 1.0 | 0.00 | 0.01 | 0.00 | 62 | 1020.3 |
| 20260830132024 | 76 | 313 | 0.0 | 1.0 | 0.00 | 0.01 | 0.00 | 64 | 1020.5 |
| 20260830131903 | 76 | 306 | 0.0 | 1.0 | 0.00 | 0.01 | 0.00 | 63 | 1020.5 |
| 20260830131824 | 76 | 301 | 0.0 | 1.0 | 0.00 | 0.01 | 0.00 | 62 | 1020.3 |
| 20260830131703 | 77 | 303 | 0.0 | 1.0 | 0.00 | 0.01 | 0.00 | 64 | 1020.4 |
| 20260830131603 | 77 | 305 | 0.0 | 1.0 | 0.00 | 0.01 | 0.00 | 62 | 1020.4 |
| 20260830131524 | 77 | 297 | 0.0 | 1.0 | 0.00 | 0.01 | 0.00 | 62 | 1020.3 |
| 20260830131403 | 77 | 297 | 0.0 | 1.0 | 0.00 | 0.01 | 0.00 | 61 | 1020.1 |
| 20260830131303 | 76 | 290 | 0.0 | 1.0 | 0.00 | 0.01 | 0.00 | 63 | 1020.4 |
| 20260830131202 | 76 | 296 | 0.0 | 1.0 | 0.00 | 0.01 | 0.00 | 64 | 1020.5 |
| 20260830131103 | 76 | 305 | 0.0 | 1.0 | 0.00 | 0.01 | 0.00 | 63 | 1020.5 |
| 20260830131003 | 76 | 299 | 0.0 | 1.0 | 0.00 | 0.01 | 0.00 | 62 | 1020.5 |
| 20260830130903 | 76 | 304 | 0.0 | 1.0 | 0.00 | 0.01 | 0.00 | 63 | 1020.4 |
| 20260830130803 | 76 | 310 | 0.0 | 1.0 | 0.00 | 0.01 | 0.00 | 63 | 1020.6 |
| 20260830130703 | 76 | 317 | 0.0 | 1.0 | 0.00 | 0.01 | 0.00 | 62 | 1020.5 |
| 20260830130603 | 75 | 318 | 0.0 | 1.0 | 0.00 | 0.01 | 0.00 | 64 | 1020.3 |
| 20260830130503 | 75 | 323 | 0.0 | 1.0 | 0.00 | 0.01 | 0.00 | 62 | 1020.5 |
| 20260830130424 | 75 | 323 | 0.0 | 1.0 | 0.00 | 0.01 | 0.00 | 64 | 1020.4 |
| 20260830130324 | 75 | 323 | 0.0 | 1.0 | 0.00 | 0.01 | 0.00 | 64 | 1020.5 |
| 20260830130203 | 74 | 339 | 0.0 | 1.0 | 0.00 | 0.01 | 0.00 | 65 | 1020.4 |
| 20260830130003 | 74 | 349 | 0.0 | 1.0 | 0.00 | 0.01 | 0.00 | 65 | 1020.6 |
| 20260830125903 | 75 | 352 | 0.0 | 1.0 | 0.00 | 0.01 | 0.00 | 63 | 1020.6 |
| 20260830125803 | 75 | 359 | 0.0 | 1.0 | 0.00 | 0.01 | 0.00 | 63 | 1020.4 |
| 20260830125703 | 76 | 355 | 0.0 | 1.0 | 0.00 | 0.01 | 0.00 | 63 | 1020.5 |
| 20260830125603 | 76 | 355 | 0.0 | 1.0 | 0.00 | 0.01 | 0.00 | 61 | 1020.6 |
| 20260830125503 | 76 | 355 | 0.0 | 1.0 | 0.00 | 0.01 | 0.00 | 62 | 1020.5 |
| 20260830125403 | 76 | 339 | 0.0 | 1.0 | 0.00 | 0.01 | 0.00 | 63 | 1020.7 |
| 20260830125305 | 76 | 342 | 0.0 | 1.0 | 0.00 | 0.01 | 0.00 | 62 | 1020.6 |
| 20260830125203 | 76 | 342 | 0.0 | 1.0 | 0.00 | 0.01 | 0.00 | 64 | 1020.3 |
| 20260830125103 | 76 | 337 | 0.0 | 1.0 | 0.00 | 0.01 | 0.00 | 63 | 1020.5 |
| 20260830125003 | 75 | 318 | 0.0 | 1.0 | 0.00 | 0.01 | 0.00 | 65 | 1020.5 |
| 20260830124903 | 75 | 318 | 0.0 | 1.0 | 0.00 | 0.01 | 0.00 | 65 | 1020.4 |
| 20260830124803 | 75 | 318 | 0.0 | 1.0 | 0.00 | 0.01 | 0.00 | 62 | 1020.4 |
| 20260830124703 | 75 | 318 | 0.0 | 1.0 | 0.00 | 0.01 | 0.00 | 61 | 1020.6 |
| 20260830124602 | 75 | 311 | 0.0 | 1.0 | 0.00 | 0.01 | 0.00 | 63 | 1020.6 |
| 20260830124503 | 74 | 308 | 0.0 | 1.0 | 0.00 | 0.01 | 0.00 | 61 | 1020.5 |
| 20260830124403 | 74 | 306 | 0.0 | 1.0 | 0.00 | 0.01 | 0.00 | 63 | 1020.5 |
| 20260830124324 | 74 | 323 | 0.0 | 1.0 | 0.00 | 0.01 | 0.00 | 63 | 1020.8 |
| 20260830124203 | 74 | 323 | 0.0 | 1.0 | 0.00 | 0.01 | 0.00 | 64 | 1020.6 |
| 20260830124103 | 74 | 322 | 0.0 | 1.0 | 0.00 | 0.01 | 0.00 | 65 | 1020.5 |
| 20260830124003 | 74 | 325 | 0.0 | 1.0 | 0.00 | 0.01 | 0.00 | 65 | 1020.5 |
| 20260830123903 | 74 | 322 | 0.0 | 1.0 | 0.00 | 0.01 | 0.00 | 62 | 1020.6 |
| 20260830123803 | 75 | 323 | 0.0 | 1.0 | 0.00 | 0.01 | 0.00 | 62 | 1020.7 |
| 20260830123703 | 75 | 325 | 0.0 | 1.0 | 0.00 | 0.01 | 0.00 | 63 | 1020.6 |
| 20260830123624 | 75 | 329 | 0.0 | 1.0 | 0.00 | 0.01 | 0.00 | 63 | 1020.5 |
| 20260830123503 | 76 | 329 | 0.0 | 1.0 | 0.00 | 0.01 | 0.00 | 60 | 1020.6 |
| 20260830123424 | 76 | 339 | 0.0 | 1.0 | 0.00 | 0.01 | 0.00 | 59 | 1020.6 |
| 20260830123303 | 75 | 324 | 0.0 | 1.0 | 0.00 | 0.01 | 0.00 | 61 | 1020.5 |
| 20260830123203 | 75 | 324 | 0.0 | 1.0 | 0.00 | 0.01 | 0.00 | 59 | 1020.6 |
| 20260830123103 | 75 | 321 | 0.0 | 1.0 | 0.00 | 0.01 | 0.00 | 59 | 1020.6 |
| 20260830123003 | 75 | 311 | 0.0 | 1.0 | 0.00 | 0.01 | 0.00 | 60 | 1020.5 |
| 20260830122903 | 75 | 316 | 0.0 | 1.0 | 0.00 | 0.01 | 0.00 | 59 | 1020.6 |
| 20260830122824 | 75 | 314 | 0.0 | 1.0 | 0.00 | 0.01 | 0.00 | 57 | 1020.6 |
| 20260830122703 | 75 | 314 | 0.0 | 1.0 | 0.00 | 0.01 | 0.00 | 59 | 1020.5 |
| 20260830122603 | 75 | 310 | 0.0 | 1.0 | 0.00 | 0.01 | 0.00 | 63 | 1020.6 |
| 20260830122503 | 75 | 318 | 0.0 | 1.0 | 0.00 | 0.01 | 0.00 | 61 | 1020.5 |
| 20260830122403 | 75 | 318 | 0.0 | 1.0 | 0.00 | 0.01 | 0.00 | 62 | 1020.6 |
| 20260830122306 | 75 | 311 | 0.0 | 1.0 | 0.00 | 0.01 | 0.00 | 61 | 1020.7 |
| 20260830122203 | 76 | 327 | 0.0 | 1.0 | 0.00 | 0.01 | 0.00 | 60 | 1020.6 |
| 20260830122103 | 77 | 327 | 0.0 | 1.0 | 0.00 | 0.01 | 0.00 | 59 | 1020.7 |
| 20260830122024 | 77 | 337 | 0.0 | 1.0 | 0.00 | 0.01 | 0.00 | 60 | 1020.6 |
| 20260830121902 | 78 | 332 | 0.0 | 1.0 | 0.00 | 0.01 | 0.00 | 61 | 1020.7 |
| 20260830121803 | 78 | 321 | 0.0 | 1.0 | 0.00 | 0.01 | 0.00 | 57 | 1020.6 |
| 20260830121702 | 78 | 338 | 0.0 | 1.0 | 0.00 | 0.01 | 0.00 | 60 | 1020.4 |
| 20260830121603 | 78 | 338 | 0.0 | 1.0 | 0.00 | 0.01 | 0.00 | 62 | 1020.6 |
| 20260830121503 | 78 | 355 | 0.0 | 1.0 | 0.00 | 0.01 | 0.00 | 61 | 1020.5 |
| 20260830121404 | 77 | 13 | 0.0 | 1.0 | 0.00 | 0.01 | 0.00 | 62 | 1020.6 |
| 20260830121303 | 76 | 13 | 0.0 | 1.0 | 0.00 | 0.01 | 0.00 | 62 | 1020.5 |
| 20260830121224 | 76 | 26 | 0.0 | 1.0 | 0.00 | 0.01 | 0.00 | 63 | 1020.5 |
| 20260830121103 | 76 | 44 | 0.0 | 1.0 | 0.00 | 0.01 | 0.00 | 61 | 1020.6 |
| 20260830121003 | 76 | 68 | 0.0 | 1.0 | 0.00 | 0.01 | 0.00 | 61 | 1020.6 |
| 20260830120903 | 76 | 82 | 0.0 | 1.0 | 0.00 | 0.01 | 0.00 | 61 | 1020.5 |
| 20260830120803 | 76 | 59 | 0.0 | 1.0 | 0.00 | 0.01 | 0.00 | 59 | 1020.7 |
| 20260830120703 | 76 | 50 | 0.0 | 1.0 | 0.00 | 0.01 | 0.00 | 61 | 1020.6 |
| 20260830120603 | 76 | 11 | 0.0 | 1.0 | 0.00 | 0.01 | 0.00 | 60 | 1020.5 |
| 20260830120503 | 76 | 331 | 0.0 | 1.0 | 0.00 | 0.01 | 0.00 | 60 | 1020.6 |
| 20260830120403 | 75 | 305 | 0.0 | 1.0 | 0.00 | 0.01 | 0.00 | 61 | 1020.6 |
| 20260830120303 | 75 | 288 | 0.0 | 1.0 | 0.00 | 0.01 | 0.00 | 60 | 1020.6 |
| 20260830120203 | 74 | 288 | 0.0 | 1.0 | 0.00 | 0.01 | 0.00 | 64 | 1020.8 |
| 20260830120003 | 74 | 288 | 0.0 | 1.0 | 0.00 | 0.01 | 0.00 | 64 | 1020.6 |
| 20260830115903 | 74 | 297 | 0.0 | 1.0 | 0.00 | 0.01 | 0.00 | 64 | 1020.7 |
| 20260830115803 | 74 | 297 | 0.0 | 1.0 | 0.00 | 0.01 | 0.00 | 64 | 1020.7 |
| 20260830115724 | 74 | 306 | 0.0 | 1.0 | 0.00 | 0.01 | 0.00 | 63 | 1020.7 |
| 20260830115603 | 74 | 306 | 0.0 | 1.0 | 0.00 | 0.01 | 0.00 | 64 | 1020.7 |
| 20260830115524 | 74 | 298 | 0.0 | 1.0 | 0.00 | 0.01 | 0.00 | 64 | 1020.8 |
| 20260830115424 | 74 | 312 | 0.0 | 1.0 | 0.00 | 0.01 | 0.00 | 64 | 1020.6 |
| 20260830115306 | 74 | 328 | 0.0 | 1.0 | 0.00 | 0.01 | 0.00 | 65 | 1020.7 |
| 20260830115203 | 74 | 342 | 0.0 | 1.0 | 0.00 | 0.01 | 0.00 | 66 | 1020.7 |
| 20260830115103 | 74 | 342 | 0.0 | 1.0 | 0.00 | 0.01 | 0.00 | 66 | 1020.7 |
| 20260830115003 | 74 | 342 | 0.0 | 1.0 | 0.00 | 0.01 | 0.00 | 66 | 1020.8 |
| 20260830114924 | 74 | 5 | 0.0 | 1.0 | 0.00 | 0.01 | 0.00 | 67 | 1020.9 |
| 20260830114803 | 74 | 30 | 0.0 | 1.0 | 0.00 | 0.01 | 0.00 | 65 | 1020.7 |
| 20260830114703 | 74 | 46 | 0.0 | 1.0 | 0.00 | 0.01 | 0.00 | 65 | 1020.8 |
| 20260830114603 | 74 | 46 | 0.0 | 1.0 | 0.00 | 0.01 | 0.00 | 65 | 1020.7 |
| 20260830114503 | 74 | 29 | 0.0 | 1.0 | 0.00 | 0.01 | 0.00 | 65 | 1020.7 |
| 20260830114403 | 75 | 22 | 0.0 | 1.0 | 0.00 | 0.01 | 0.00 | 64 | 1020.7 |
| 20260830114303 | 75 | 11 | 0.0 | 1.0 | 0.00 | 0.01 | 0.00 | 62 | 1020.8 |
| 20260830114203 | 75 | 11 | 0.0 | 1.0 | 0.00 | 0.01 | 0.00 | 61 | 1020.8 |
| 20260830114103 | 76 | 6 | 0.0 | 1.0 | 0.00 | 0.01 | 0.00 | 62 | 1020.7 |
| 20260830114003 | 76 | 2 | 0.0 | 1.0 | 0.00 | 0.01 | 0.00 | 61 | 1020.6 |
| 20260830113903 | 76 | 341 | 0.0 | 1.0 | 0.00 | 0.01 | 0.00 | 60 | 1020.8 |
| 20260830113803 | 76 | 329 | 0.0 | 1.0 | 0.00 | 0.01 | 0.00 | 58 | 1020.7 |
| 20260830113703 | 76 | 333 | 0.0 | 1.0 | 0.00 | 0.01 | 0.00 | 59 | 1020.7 |
| 20260830113603 | 76 | 339 | 0.0 | 1.0 | 0.00 | 0.01 | 0.00 | 58 | 1020.7 |
| 20260830113503 | 76 | 340 | 0.0 | 1.0 | 0.00 | 0.01 | 0.00 | 57 | 1020.7 |
| 20260830113403 | 76 | 340 | 0.0 | 1.0 | 0.00 | 0.01 | 0.00 | 58 | 1020.8 |
| 20260830113303 | 76 | 329 | 0.0 | 1.0 | 0.00 | 0.01 | 0.00 | 58 | 1020.8 |
| 20260830113203 | 76 | 345 | 0.0 | 1.0 | 0.00 | 0.01 | 0.00 | 58 | 1020.8 |
| 20260830113124 | 75 | 345 | 0.0 | 1.0 | 0.00 | 0.01 | 0.00 | 57 | 1020.8 |
| 20260830113003 | 75 | 352 | 0.0 | 1.0 | 0.00 | 0.01 | 0.00 | 57 | 1020.9 |
| 20260830112903 | 75 | 352 | 0.0 | 1.0 | 0.00 | 0.01 | 0.00 | 59 | 1020.9 |
| 20260830112824 | 75 | 1 | 0.0 | 1.0 | 0.00 | 0.01 | 0.00 | 59 | 1020.8 |
| 20260830112703 | 75 | 356 | 0.0 | 1.0 | 0.00 | 0.01 | 0.00 | 62 | 1020.8 |
| 20260830112603 | 75 | 346 | 0.0 | 1.0 | 0.00 | 0.01 | 0.00 | 60 | 1020.9 |
| 20260830112503 | 75 | 339 | 0.0 | 1.0 | 0.00 | 0.01 | 0.00 | 60 | 1020.7 |
| 20260830112403 | 74 | 344 | 0.0 | 1.0 | 0.00 | 0.01 | 0.00 | 66 | 1020.7 |
| 20260830112306 | 73 | 350 | 0.0 | 1.0 | 0.00 | 0.01 | 0.00 | 67 | 1020.8 |
| 20260830112203 | 73 | 341 | 0.0 | 1.0 | 0.00 | 0.01 | 0.00 | 68 | 1020.7 |
| 20260830112103 | 73 | 337 | 0.0 | 1.0 | 0.00 | 0.01 | 0.00 | 68 | 1020.9 |
| 20260830112003 | 72 | 337 | 0.0 | 1.0 | 0.00 | 0.01 | 0.00 | 71 | 1020.7 |
| 20260830111903 | 72 | 332 | 0.0 | 1.0 | 0.00 | 0.01 | 0.00 | 69 | 1020.9 |
| 20260830111803 | 72 | 325 | 0.0 | 1.0 | 0.00 | 0.01 | 0.00 | 69 | 1020.8 |
| 20260830111703 | 72 | 324 | 0.0 | 1.0 | 0.00 | 0.01 | 0.00 | 69 | 1020.9 |
| 20260830111603 | 72 | 324 | 0.0 | 1.0 | 0.00 | 0.01 | 0.00 | 70 | 1020.9 |
| 20260830111503 | 72 | 326 | 0.0 | 1.0 | 0.00 | 0.01 | 0.00 | 69 | 1020.9 |
| 20260830111403 | 71 | 318 | 0.0 | 1.0 | 0.00 | 0.01 | 0.00 | 68 | 1020.9 |
| 20260830111303 | 71 | 312 | 0.0 | 1.0 | 0.00 | 0.01 | 0.00 | 70 | 1020.9 |
| 20260830111224 | 71 | 301 | 0.0 | 1.0 | 0.00 | 0.01 | 0.00 | 69 | 1020.8 |
| 20260830111124 | 71 | 301 | 0.0 | 1.0 | 0.00 | 0.01 | 0.00 | 69 | 1020.9 |
| 20260830111003 | 71 | 301 | 0.0 | 1.0 | 0.00 | 0.01 | 0.00 | 69 | 1020.9 |
| 20260830110903 | 71 | 302 | 0.0 | 1.0 | 0.00 | 0.01 | 0.00 | 69 | 1020.8 |
| 20260830110803 | 71 | 295 | 0.0 | 1.0 | 0.00 | 0.01 | 0.00 | 69 | 1020.8 |
| 20260830110703 | 71 | 327 | 0.0 | 1.0 | 0.00 | 0.01 | 0.00 | 70 | 1020.8 |
| 20260830110603 | 71 | 320 | 0.0 | 1.0 | 0.00 | 0.01 | 0.00 | 68 | 1020.9 |
| 20260830110503 | 71 | 320 | 0.0 | 1.0 | 0.00 | 0.01 | 0.00 | 69 | 1020.8 |
| 20260830110403 | 71 | 320 | 0.0 | 1.0 | 0.00 | 0.01 | 0.00 | 69 | 1020.8 |
| 20260830110303 | 71 | 320 | 0.0 | 1.0 | 0.00 | 0.01 | 0.00 | 70 | 1020.8 |
| 20260830110203 | 71 | 320 | 0.0 | 1.0 | 0.00 | 0.01 | 0.00 | 69 | 1020.8 |
| 20260830110003 | 71 | 12 | 0.0 | 1.0 | 0.00 | 0.01 | 0.00 | 70 | 1021.0 |
| 20260830105903 | 71 | 35 | 0.0 | 1.0 | 0.00 | 0.01 | 0.00 | 70 | 1020.8 |
| 20260830105803 | 71 | 59 | 0.0 | 1.0 | 0.00 | 0.01 | 0.00 | 69 | 1020.8 |
| 20260830105703 | 71 | 97 | 0.0 | 1.0 | 0.00 | 0.01 | 0.00 | 69 | 1020.9 |
| 20260830105603 | 71 | 119 | 0.0 | 1.0 | 0.00 | 0.01 | 0.00 | 69 | 1020.8 |
| 20260830105503 | 71 | 83 | 0.0 | 1.0 | 0.00 | 0.01 | 0.00 | 69 | 1020.8 |
| 20260830105424 | 71 | 83 | 0.0 | 1.0 | 0.00 | 0.01 | 0.00 | 70 | 1020.8 |
| 20260830105324 | 71 | 83 | 0.0 | 1.0 | 0.00 | 0.01 | 0.00 | 68 | 1020.6 |
| 20260830105203 | 72 | 83 | 0.0 | 1.0 | 0.00 | 0.01 | 0.00 | 68 | 1020.7 |
| 20260830105103 | 72 | 74 | 0.0 | 1.0 | 0.00 | 0.01 | 0.00 | 69 | 1020.7 |
| 20260830105024 | 72 | 74 | 0.0 | 1.0 | 0.00 | 0.01 | 0.00 | 68 | 1020.8 |
| 20260830104903 | 72 | 195 | 0.0 | 1.0 | 0.00 | 0.01 | 0.00 | 67 | 1020.8 |
| 20260830104803 | 72 | 226 | 0.0 | 1.0 | 0.00 | 0.01 | 0.00 | 67 | 1021.0 |
| 20260830104703 | 73 | 268 | 0.0 | 1.0 | 0.00 | 0.01 | 0.00 | 67 | 1020.7 |
| 20260830104603 | 73 | 268 | 0.0 | 1.0 | 0.00 | 0.01 | 0.00 | 66 | 1020.7 |
| 20260830104503 | 72 | 268 | 0.0 | 1.0 | 0.00 | 0.01 | 0.00 | 69 | 1020.8 |
| 20260830104403 | 72 | 268 | 0.0 | 1.0 | 0.00 | 0.01 | 0.00 | 68 | 1020.7 |
| 20260830104303 | 72 | 279 | 0.0 | 1.0 | 0.00 | 0.01 | 0.00 | 69 | 1020.8 |
| 20260830104203 | 71 | 298 | 0.0 | 1.0 | 0.00 | 0.01 | 0.00 | 71 | 1020.9 |
| 20260830104124 | 71 | 317 | 0.0 | 1.0 | 0.00 | 0.01 | 0.00 | 70 | 1020.9 |
| 20260830104003 | 72 | 317 | 0.0 | 1.0 | 0.00 | 0.01 | 0.00 | 69 | 1020.7 |
| 20260830103903 | 72 | 317 | 0.0 | 1.0 | 0.00 | 0.01 | 0.00 | 71 | 1020.7 |
| 20260830103803 | 72 | 337 | 0.0 | 1.0 | 0.00 | 0.01 | 0.00 | 69 | 1020.7 |
| 20260830103703 | 72 | 337 | 0.0 | 1.0 | 0.00 | 0.01 | 0.00 | 70 | 1020.9 |
| 20260830103603 | 72 | 337 | 0.0 | 1.0 | 0.00 | 0.01 | 0.00 | 70 | 1020.8 |
| 20260830103524 | 72 | 345 | 0.0 | 1.0 | 0.00 | 0.01 | 0.00 | 69 | 1020.8 |
| 20260830103403 | 72 | 331 | 0.0 | 1.0 | 0.00 | 0.01 | 0.00 | 70 | 1020.8 |
| 20260830103303 | 72 | 345 | 0.0 | 1.0 | 0.00 | 0.01 | 0.00 | 69 | 1020.9 |
| 20260830103203 | 72 | 345 | 0.0 | 1.0 | 0.00 | 0.01 | 0.00 | 68 | 1020.8 |
| 20260830103103 | 72 | 314 | 0.0 | 1.0 | 0.00 | 0.01 | 0.00 | 68 | 1020.7 |
| 20260830103003 | 72 | 289 | 0.0 | 1.0 | 0.00 | 0.01 | 0.00 | 68 | 1020.8 |
| 20260830102903 | 71 | 292 | 0.0 | 1.0 | 0.00 | 0.01 | 0.00 | 69 | 1020.8 |
| 20260830102803 | 71 | 274 | 0.0 | 1.0 | 0.00 | 0.01 | 0.00 | 71 | 1020.9 |
| 20260830102703 | 71 | 273 | 0.0 | 1.0 | 0.00 | 0.01 | 0.00 | 70 | 1020.9 |
| 20260830102603 | 71 | 273 | 0.0 | 1.0 | 0.00 | 0.01 | 0.00 | 70 | 1020.7 |
| 20260830102503 | 71 | 259 | 0.0 | 1.0 | 0.00 | 0.01 | 0.00 | 69 | 1020.9 |
| 20260830102403 | 71 | 259 | 0.0 | 1.0 | 0.00 | 0.01 | 0.00 | 69 | 1020.9 |
| 20260830102324 | 71 | 269 | 0.0 | 1.0 | 0.00 | 0.01 | 0.00 | 70 | 1020.8 |
| 20260830102203 | 72 | 260 | 0.0 | 1.0 | 0.00 | 0.01 | 0.00 | 68 | 1020.6 |
| 20260830102103 | 72 | 280 | 0.0 | 1.0 | 0.00 | 0.01 | 0.00 | 68 | 1020.8 |
| 20260830102003 | 72 | 313 | 0.0 | 1.0 | 0.00 | 0.01 | 0.00 | 67 | 1020.8 |
| 20260830101904 | 72 | 271 | 0.0 | 1.0 | 0.00 | 0.01 | 0.00 | 68 | 1020.8 |
| 20260830101824 | 72 | 191 | 0.0 | 1.0 | 0.00 | 0.01 | 0.00 | 69 | 1020.8 |
| 20260830101703 | 71 | 0 | 0.0 | 1.0 | 0.00 | 0.01 | 0.00 | 71 | 1020.8 |
| 20260830101603 | 71 | 0 | 0.0 | 1.0 | 0.00 | 0.01 | 0.00 | 69 | 1020.9 |
| 20260830101524 | 71 | 258 | 0.0 | 1.0 | 0.00 | 0.01 | 0.00 | 69 | 1020.9 |
| 20260830101403 | 71 | 258 | 0.0 | 1.0 | 0.00 | 0.01 | 0.00 | 71 | 1020.7 |
| 20260830101303 | 72 | 223 | 0.0 | 1.0 | 0.00 | 0.01 | 0.00 | 70 | 1020.8 |
| 20260830101203 | 72 | 223 | 0.0 | 1.0 | 0.00 | 0.01 | 0.00 | 69 | 1020.7 |
| 20260830101103 | 72 | 266 | 0.0 | 1.0 | 0.00 | 0.01 | 0.00 | 68 | 1020.8 |
| 20260830101003 | 72 | 252 | 0.0 | 1.0 | 0.00 | 0.01 | 0.00 | 69 | 1020.7 |
| 20260830100903 | 73 | 252 | 0.0 | 1.0 | 0.00 | 0.01 | 0.00 | 67 | 1020.8 |
| 20260830100803 | 72 | 252 | 0.0 | 1.0 | 0.00 | 0.01 | 0.00 | 68 | 1020.8 |
| 20260830100703 | 72 | 252 | 0.0 | 1.0 | 0.00 | 0.01 | 0.00 | 71 | 1020.7 |
| 20260830100603 | 72 | 229 | 0.0 | 1.0 | 0.00 | 0.01 | 0.00 | 70 | 1020.9 |
| 20260830100503 | 72 | 195 | 0.0 | 1.0 | 0.00 | 0.01 | 0.00 | 67 | 1020.7 |
| 20260830100403 | 72 | 195 | 0.0 | 1.0 | 0.00 | 0.01 | 0.00 | 69 | 1020.8 |
| 20260830100324 | 72 | 195 | 0.0 | 1.0 | 0.00 | 0.01 | 0.00 | 68 | 1020.9 |
| 20260830100203 | 72 | 237 | 0.0 | 1.0 | 0.00 | 0.01 | 0.00 | 69 | 1020.7 |
| 20260830100003 | 72 | 182 | 0.0 | 1.0 | 0.00 | 0.01 | 0.00 | 68 | 1020.8 |
| 20260830095903 | 73 | 182 | 0.0 | 1.0 | 0.00 | 0.01 | 0.00 | 68 | 1020.7 |
| 20260830095803 | 73 | 182 | 0.0 | 1.0 | 0.00 | 0.01 | 0.00 | 67 | 1020.7 |
| 20260830095703 | 73 | 182 | 0.0 | 1.0 | 0.00 | 0.01 | 0.00 | 68 | 1020.8 |
| 20260830095603 | 73 | 204 | 0.0 | 1.0 | 0.00 | 0.01 | 0.00 | 68 | 1020.8 |
| 20260830095503 | 73 | 235 | 0.0 | 1.0 | 0.00 | 0.01 | 0.00 | 69 | 1020.7 |
| 20260830095403 | 72 | 256 | 0.0 | 1.0 | 0.00 | 0.01 | 0.00 | 69 | 1020.7 |
| 20260830095305 | 72 | 305 | 0.0 | 1.0 | 0.00 | 0.01 | 0.00 | 69 | 1020.8 |
| 20260830095203 | 72 | 290 | 0.0 | 1.0 | 0.00 | 0.01 | 0.00 | 69 | 1020.8 |
| 20260830095103 | 72 | 345 | 0.0 | 1.0 | 0.00 | 0.01 | 0.00 | 69 | 1020.7 |
| 20260830095024 | 72 | 328 | 0.0 | 1.0 | 0.00 | 0.01 | 0.00 | 69 | 1020.8 |
| 20260830094903 | 72 | 328 | 0.0 | 1.0 | 0.00 | 0.01 | 0.00 | 69 | 1020.8 |
| 20260830094803 | 72 | 328 | 0.0 | 1.0 | 0.00 | 0.01 | 0.00 | 70 | 1020.8 |
| 20260830094703 | 72 | 348 | 0.0 | 1.0 | 0.00 | 0.01 | 0.00 | 71 | 1020.8 |
| 20260830094603 | 71 | 325 | 0.0 | 1.0 | 0.00 | 0.01 | 0.00 | 75 | 1020.8 |
| 20260830094503 | 71 | 42 | 0.0 | 1.0 | 0.00 | 0.01 | 0.00 | 71 | 1020.8 |
| 20260830094424 | 71 | 42 | 0.0 | 1.0 | 0.00 | 0.01 | 0.00 | 70 | 1020.8 |
| 20260830094303 | 71 | 32 | 0.0 | 1.0 | 0.00 | 0.01 | 0.00 | 70 | 1020.7 |
| 20260830094203 | 72 | 44 | 0.0 | 1.0 | 0.00 | 0.01 | 0.00 | 71 | 1020.8 |
| 20260830094103 | 72 | 44 | 0.0 | 1.0 | 0.00 | 0.01 | 0.00 | 70 | 1020.7 |
| 20260830094003 | 72 | 44 | 0.0 | 1.0 | 0.00 | 0.01 | 0.00 | 68 | 1020.8 |
| 20260830093903 | 72 | 106 | 0.0 | 1.0 | 0.00 | 0.01 | 0.00 | 68 | 1020.8 |
| 20260830093803 | 72 | 106 | 0.0 | 1.0 | 0.00 | 0.01 | 0.00 | 71 | 1020.9 |
| 20260830093703 | 72 | 155 | 0.0 | 1.0 | 0.00 | 0.01 | 0.00 | 74 | 1020.8 |
| 20260830093624 | 71 | 105 | 0.0 | 1.0 | 0.00 | 0.01 | 0.00 | 72 | 1020.8 |
| 20260830093524 | 71 | 43 | 0.0 | 1.0 | 0.00 | 0.01 | 0.00 | 70 | 1020.9 |
| 20260830093403 | 71 | 300 | 0.0 | 1.0 | 0.00 | 0.01 | 0.00 | 71 | 1020.8 |
| 20260830093303 | 71 | 297 | 0.0 | 1.0 | 0.00 | 0.01 | 0.00 | 72 | 1020.7 |
| 20260830093203 | 71 | 282 | 0.0 | 1.0 | 0.00 | 0.01 | 0.00 | 74 | 1020.9 |
| 20260830093103 | 71 | 292 | 0.0 | 1.0 | 0.00 | 0.01 | 0.00 | 71 | 1020.7 |
| 20260830093003 | 71 | 301 | 0.0 | 1.0 | 0.00 | 0.01 | 0.00 | 72 | 1020.7 |
| 20260830092924 | 70 | 309 | 0.0 | 1.0 | 0.00 | 0.01 | 0.00 | 73 | 1020.7 |
| 20260830092803 | 70 | 309 | 0.0 | 1.0 | 0.00 | 0.01 | 0.00 | 72 | 1020.5 |
| 20260830092703 | 70 | 309 | 0.0 | 1.0 | 0.00 | 0.01 | 0.00 | 72 | 1020.6 |
| 20260830092603 | 69 | 304 | 0.0 | 1.0 | 0.00 | 0.01 | 0.00 | 75 | 1020.6 |
| 20260830092503 | 69 | 304 | 0.0 | 1.0 | 0.00 | 0.01 | 0.00 | 73 | 1020.9 |
| 20260830092403 | 69 | 308 | 0.0 | 1.0 | 0.00 | 0.01 | 0.00 | 74 | 1020.7 |
| 20260830092305 | 69 | 312 | 0.0 | 1.0 | 0.00 | 0.01 | 0.00 | 74 | 1020.7 |
| 20260830092203 | 69 | 317 | 0.0 | 1.0 | 0.00 | 0.01 | 0.00 | 76 | 1020.7 |
| 20260830092103 | 68 | 313 | 0.0 | 1.0 | 0.00 | 0.01 | 0.00 | 75 | 1020.7 |
| 20260830092003 | 68 | 313 | 0.0 | 1.0 | 0.00 | 0.01 | 0.00 | 76 | 1020.6 |
| 20260830091903 | 68 | 315 | 0.0 | 1.0 | 0.00 | 0.01 | 0.00 | 75 | 1020.6 |
| 20260830091824 | 68 | 302 | 0.0 | 1.0 | 0.00 | 0.01 | 0.00 | 77 | 1020.7 |
| 20260830091703 | 68 | 312 | 0.0 | 1.0 | 0.00 | 0.01 | 0.00 | 75 | 1020.7 |
| 20260830091624 | 68 | 324 | 0.0 | 1.0 | 0.00 | 0.01 | 0.00 | 75 | 1020.5 |
| 20260830091503 | 68 | 324 | 0.0 | 1.0 | 0.00 | 0.01 | 0.00 | 76 | 1020.6 |
| 20260830091403 | 68 | 326 | 0.0 | 1.0 | 0.00 | 0.01 | 0.00 | 74 | 1020.8 |
| 20260830091303 | 68 | 326 | 0.0 | 1.0 | 0.00 | 0.01 | 0.00 | 75 | 1020.5 |
| 20260830091203 | 68 | 326 | 0.0 | 1.0 | 0.00 | 0.01 | 0.00 | 75 | 1020.5 |
| 20260830091103 | 69 | 326 | 0.0 | 1.0 | 0.00 | 0.01 | 0.00 | 76 | 1020.6 |
| 20260830091003 | 69 | 326 | 0.0 | 1.0 | 0.00 | 0.01 | 0.00 | 76 | 1020.6 |
| 20260830090903 | 69 | 327 | 0.0 | 1.0 | 0.00 | 0.01 | 0.00 | 76 | 1020.6 |
| 20260830090824 | 69 | 327 | 0.0 | 1.0 | 0.00 | 0.01 | 0.00 | 77 | 1020.6 |
| 20260830090703 | 69 | 329 | 0.0 | 1.0 | 0.00 | 0.01 | 0.00 | 75 | 1020.6 |
| 20260830090603 | 69 | 352 | 0.0 | 1.0 | 0.00 | 0.01 | 0.00 | 75 | 1020.5 |
| 20260830090503 | 69 | 352 | 0.0 | 1.0 | 0.00 | 0.01 | 0.00 | 76 | 1020.6 |
| 20260830090403 | 70 | 20 | 0.0 | 1.0 | 0.00 | 0.01 | 0.00 | 75 | 1020.6 |
| 20260830090324 | 70 | 76 | 0.0 | 1.0 | 0.00 | 0.01 | 0.00 | 75 | 1020.6 |
| 20260830090203 | 70 | 76 | 0.0 | 1.0 | 0.00 | 0.01 | 0.00 | 76 | 1020.6 |
| 20260830090103 | 70 | 76 | 0.0 | 1.0 | 0.00 | 0.01 | 0.00 | 75 | 1020.4 |
| 20260830090004 | 70 | 76 | 0.0 | 1.0 | 0.00 | 0.01 | 0.00 | 76 | 1020.5 |
| 20260830085903 | 70 | 76 | 0.0 | 1.0 | 0.00 | 0.01 | 0.00 | 77 | 1020.5 |
| 20260830085824 | 70 | 76 | 0.0 | 1.0 | 0.00 | 0.01 | 0.00 | 77 | 1020.5 |
| 20260830085724 | 70 | 76 | 0.0 | 1.0 | 0.00 | 0.01 | 0.00 | 76 | 1020.5 |
| 20260830085603 | 70 | 81 | 0.0 | 1.0 | 0.00 | 0.01 | 0.00 | 78 | 1020.4 |
| 20260830085503 | 71 | 82 | 0.0 | 1.0 | 0.00 | 0.01 | 0.00 | 75 | 1020.5 |
| 20260830085403 | 71 | 82 | 0.0 | 1.0 | 0.00 | 0.01 | 0.00 | 75 | 1020.5 |
| 20260830085306 | 71 | 56 | 0.0 | 1.0 | 0.00 | 0.01 | 0.00 | 77 | 1020.4 |
| 20260830085203 | 70 | 4 | 0.0 | 1.0 | 0.00 | 0.01 | 0.00 | 77 | 1020.4 |
| 20260830085103 | 70 | 73 | 0.0 | 1.0 | 0.00 | 0.01 | 0.00 | 77 | 1020.4 |
| 20260830085003 | 70 | 73 | 0.0 | 1.0 | 0.00 | 0.01 | 0.00 | 76 | 1020.5 |
| 20260830084924 | 70 | 73 | 0.0 | 1.0 | 0.00 | 0.01 | 0.00 | 80 | 1020.2 |
| 20260830084824 | 69 | 103 | 0.0 | 1.0 | 0.00 | 0.01 | 0.00 | 79 | 1020.3 |
| 20260830084703 | 69 | 103 | 0.0 | 1.0 | 0.00 | 0.01 | 0.00 | 79 | 1020.4 |
| 20260830084624 | 69 | 103 | 0.0 | 1.0 | 0.00 | 0.01 | 0.00 | 79 | 1020.4 |
| 20260830084503 | 69 | 104 | 0.0 | 1.0 | 0.00 | 0.01 | 0.00 | 79 | 1020.5 |
| 20260830084424 | 68 | 119 | 0.0 | 1.0 | 0.00 | 0.01 | 0.00 | 79 | 1020.3 |
| 20260830084303 | 68 | 101 | 0.0 | 1.0 | 0.00 | 0.01 | 0.00 | 80 | 1020.3 |
| 20260830084203 | 68 | 101 | 0.0 | 1.0 | 0.00 | 0.01 | 0.00 | 80 | 1020.5 |
| 20260830084103 | 68 | 101 | 0.0 | 1.0 | 0.00 | 0.01 | 0.00 | 81 | 1020.5 |
| 20260830084024 | 68 | 70 | 0.0 | 1.0 | 0.00 | 0.01 | 0.00 | 82 | 1020.5 |
| 20260830083903 | 68 | 70 | 0.0 | 1.0 | 0.00 | 0.01 | 0.00 | 81 | 1020.5 |
| 20260830083803 | 68 | 70 | 0.0 | 1.0 | 0.00 | 0.01 | 0.00 | 81 | 1020.5 |
| 20260830083724 | 68 | 349 | 0.0 | 1.0 | 0.00 | 0.01 | 0.00 | 82 | 1020.2 |
| 20260830083603 | 68 | 155 | 0.0 | 1.0 | 0.00 | 0.01 | 0.00 | 81 | 1020.4 |
| 20260830083503 | 68 | 200 | 0.0 | 1.0 | 0.00 | 0.01 | 0.00 | 81 | 1020.3 |
| 20260830083403 | 68 | 200 | 0.0 | 1.0 | 0.00 | 0.01 | 0.00 | 81 | 1020.2 |
| 20260830083324 | 68 | 200 | 0.0 | 1.0 | 0.00 | 0.01 | 0.00 | 80 | 1020.3 |
| 20260830083224 | 68 | 212 | 0.0 | 1.0 | 0.00 | 0.01 | 0.00 | 81 | 1020.2 |
| 20260830083103 | 68 | 212 | 0.0 | 1.0 | 0.00 | 0.01 | 0.00 | 79 | 1020.1 |
| 20260830083003 | 68 | 212 | 0.0 | 1.0 | 0.00 | 0.01 | 0.00 | 79 | 1020.1 |
| 20260830082903 | 69 | 187 | 0.0 | 1.0 | 0.00 | 0.01 | 0.00 | 78 | 1020.2 |
| 20260830082803 | 69 | 187 | 0.0 | 1.0 | 0.00 | 0.01 | 0.00 | 80 | 1020.3 |
| 20260830082703 | 69 | 238 | 0.0 | 1.0 | 0.00 | 0.01 | 0.00 | 79 | 1020.3 |
| 20260830082624 | 69 | 238 | 0.0 | 1.0 | 0.00 | 0.01 | 0.00 | 79 | 1020.3 |
| 20260830082503 | 69 | 258 | 0.0 | 1.0 | 0.00 | 0.01 | 0.00 | 79 | 1020.3 |
| 20260830082403 | 69 | 258 | 0.0 | 1.0 | 0.00 | 0.01 | 0.00 | 82 | 1020.2 |
| 20260830082324 | 69 | 264 | 0.0 | 1.0 | 0.00 | 0.01 | 0.00 | 83 | 1020.1 |
| 20260830082203 | 68 | 264 | 0.0 | 1.0 | 0.00 | 0.01 | 0.00 | 84 | 1020.3 |
| 20260830082103 | 67 | 264 | 0.0 | 1.0 | 0.00 | 0.01 | 0.00 | 84 | 1020.3 |
| 20260830082003 | 67 | 281 | 0.0 | 1.0 | 0.00 | 0.01 | 0.00 | 84 | 1020.2 |
| 20260830081924 | 67 | 306 | 0.0 | 1.0 | 0.00 | 0.01 | 0.00 | 83 | 1020.1 |
| 20260830081803 | 67 | 306 | 0.0 | 1.0 | 0.00 | 0.01 | 0.00 | 83 | 1020.1 |
| 20260830081703 | 67 | 306 | 0.0 | 1.0 | 0.00 | 0.01 | 0.00 | 84 | 1020.1 |
| 20260830081603 | 67 | 112 | 0.0 | 1.0 | 0.00 | 0.01 | 0.00 | 83 | 1020.0 |
| 20260830081503 | 67 | 49 | 0.0 | 1.0 | 0.00 | 0.01 | 0.00 | 84 | 1020.1 |
| 20260830081403 | 67 | 49 | 0.0 | 1.0 | 0.00 | 0.01 | 0.00 | 85 | 1020.0 |
| 20260830081303 | 67 | 51 | 0.0 | 1.0 | 0.00 | 0.01 | 0.00 | 84 | 1020.0 |
| 20260830081203 | 67 | 62 | 0.0 | 1.0 | 0.00 | 0.01 | 0.00 | 84 | 1020.2 |
| 20260830081103 | 67 | 62 | 0.0 | 1.0 | 0.00 | 0.01 | 0.00 | 85 | 1020.1 |
| 20260830081005 | 67 | 62 | 0.0 | 1.0 | 0.00 | 0.01 | 0.00 | 84 | 1020.1 |
| 20260830080904 | 68 | 64 | 0.0 | 1.0 | 0.00 | 0.01 | 0.00 | 86 | 1020.2 |
| 20260830080803 | 68 | 54 | 0.0 | 1.0 | 0.00 | 0.01 | 0.00 | 86 | 1019.9 |
| 20260830080703 | 68 | 54 | 0.0 | 1.0 | 0.00 | 0.01 | 0.00 | 87 | 1020.0 |
| 20260830080603 | 67 | 54 | 0.0 | 1.0 | 0.00 | 0.01 | 0.00 | 87 | 1019.8 |
| 20260830080503 | 67 | 57 | 0.0 | 1.0 | 0.00 | 0.01 | 0.00 | 88 | 1019.8 |
| 20260830080403 | 67 | 78 | 0.0 | 1.0 | 0.00 | 0.01 | 0.00 | 87 | 1020.1 |
| 20260830080303 | 67 | 85 | 0.0 | 1.0 | 0.00 | 0.01 | 0.00 | 88 | 1020.0 |
| 20260830080203 | 67 | 85 | 0.0 | 1.0 | 0.00 | 0.01 | 0.00 | 88 | 1020.0 |
| 20260830080003 | 66 | 110 | 0.0 | 1.0 | 0.00 | 0.01 | 0.00 | 88 | 1019.9 |
| 20260830075924 | 66 | 110 | 0.0 | 1.0 | 0.00 | 0.01 | 0.00 | 89 | 1019.9 |
| 20260830075803 | 66 | 110 | 0.0 | 1.0 | 0.00 | 0.01 | 0.00 | 89 | 1019.9 |
| 20260830075703 | 66 | 110 | 0.0 | 1.0 | 0.00 | 0.01 | 0.00 | 88 | 1019.7 |
| 20260830075603 | 66 | 104 | 0.0 | 1.0 | 0.00 | 0.01 | 0.00 | 89 | 1019.9 |
| 20260830075503 | 66 | 111 | 0.0 | 1.0 | 0.00 | 0.01 | 0.00 | 89 | 1019.8 |
| 20260830075403 | 66 | 112 | 0.0 | 1.0 | 0.00 | 0.01 | 0.00 | 89 | 1019.9 |
| 20260830075324 | 66 | 111 | 0.0 | 1.0 | 0.00 | 0.01 | 0.00 | 88 | 1019.8 |
| 20260830075203 | 66 | 111 | 0.0 | 1.0 | 0.00 | 0.01 | 0.00 | 88 | 1019.7 |
| 20260830075124 | 66 | 99 | 0.0 | 1.0 | 0.00 | 0.01 | 0.00 | 88 | 1020.0 |
| 20260830075004 | 66 | 84 | 0.0 | 1.0 | 0.00 | 0.01 | 0.00 | 89 | 1020.0 |
| 20260830074903 | 66 | 84 | 0.0 | 1.0 | 0.00 | 0.01 | 0.00 | 88 | 1019.8 |
| 20260830074803 | 66 | 85 | 0.0 | 1.0 | 0.00 | 0.01 | 0.00 | 89 | 1019.9 |
| 20260830074703 | 66 | 85 | 0.0 | 1.0 | 0.00 | 0.01 | 0.00 | 89 | 1020.0 |
| 20260830074603 | 65 | 76 | 0.0 | 1.0 | 0.00 | 0.01 | 0.00 | 89 | 1020.0 |
| 20260830074503 | 65 | 80 | 0.0 | 1.0 | 0.00 | 0.01 | 0.00 | 90 | 1019.8 |
| 20260830074403 | 65 | 94 | 0.0 | 1.0 | 0.00 | 0.01 | 0.00 | 90 | 1019.9 |
| 20260830074324 | 65 | 94 | 0.0 | 1.0 | 0.00 | 0.01 | 0.00 | 90 | 1019.9 |
| 20260830074203 | 65 | 94 | 0.0 | 1.0 | 0.00 | 0.01 | 0.00 | 90 | 1019.9 |
| 20260830074103 | 65 | 85 | 0.0 | 1.0 | 0.00 | 0.01 | 0.00 | 91 | 1019.6 |
| 20260830074024 | 65 | 89 | 0.0 | 1.0 | 0.00 | 0.01 | 0.00 | 91 | 1019.8 |
| 20260830073903 | 65 | 89 | 0.0 | 1.0 | 0.00 | 0.01 | 0.00 | 92 | 1019.7 |
| 20260830073803 | 65 | 89 | 0.0 | 1.0 | 0.00 | 0.01 | 0.00 | 92 | 1019.7 |
| 20260830073703 | 65 | 90 | 0.0 | 1.0 | 0.00 | 0.01 | 0.00 | 91 | 1019.8 |
| 20260830073603 | 65 | 90 | 0.0 | 1.0 | 0.00 | 0.01 | 0.00 | 91 | 1019.7 |
| 20260830073503 | 65 | 90 | 0.0 | 1.0 | 0.00 | 0.01 | 0.00 | 92 | 1019.7 |
| 20260830073403 | 65 | 59 | 0.0 | 1.0 | 0.00 | 0.01 | 0.00 | 93 | 1019.6 |
| 20260830073324 | 65 | 59 | 0.0 | 1.0 | 0.00 | 0.01 | 0.00 | 94 | 1019.8 |
| 20260830073224 | 65 | 59 | 0.0 | 1.0 | 0.00 | 0.01 | 0.00 | 95 | 1019.7 |
| 20260830073103 | 65 | 0 | 0.0 | 0.0 | 0.00 | 0.01 | 0.00 | 95 | 1019.9 |
| 20260830073003 | 64 | 0 | 0.0 | 0.0 | 0.00 | 0.01 | 0.00 | 96 | 1019.7 |
| 20260830072924 | 64 | 0 | 0.0 | 0.0 | 0.00 | 0.01 | 0.00 | 96 | 1019.8 |
| 20260830072803 | 63 | 0 | 0.0 | 0.0 | 0.00 | 0.01 | 0.00 | 96 | 1019.6 |
| 20260830072703 | 63 | 0 | 0.0 | 0.0 | 0.00 | 0.01 | 0.00 | 96 | 1019.8 |
| 20260830072603 | 63 | 0 | 0.0 | 0.0 | 0.00 | 0.01 | 0.00 | 96 | 1019.8 |
| 20260830072503 | 63 | 0 | 0.0 | 0.0 | 0.00 | 0.01 | 0.00 | 96 | 1019.8 |
| 20260830072424 | 63 | 0 | 0.0 | 0.0 | 0.00 | 0.01 | 0.00 | 97 | 1019.7 |
| 20260830072306 | 63 | 0 | 0.0 | 0.0 | 0.00 | 0.01 | 0.00 | 97 | 1019.7 |
| 20260830072203 | 63 | 0 | 0.0 | 0.0 | 0.00 | 0.01 | 0.00 | 97 | 1019.7 |
| 20260830072103 | 63 | 0 | 0.0 | 0.0 | 0.00 | 0.01 | 0.00 | 97 | 1019.8 |
| 20260830072003 | 63 | 0 | 0.0 | 0.0 | 0.00 | 0.01 | 0.00 | 97 | 1019.6 |
| 20260830071903 | 63 | 0 | 0.0 | 0.0 | 0.00 | 0.01 | 0.00 | 97 | 1019.8 |
| 20260830071803 | 63 | 0 | 0.0 | 0.0 | 0.00 | 0.01 | 0.00 | 97 | 1019.6 |
| 20260830071703 | 62 | 0 | 0.0 | 0.0 | 0.00 | 0.01 | 0.00 | 97 | 1019.6 |
| 20260830071603 | 62 | 0 | 0.0 | 0.0 | 0.00 | 0.01 | 0.00 | 97 | 1019.6 |
| 20260830071524 | 62 | 0 | 0.0 | 0.0 | 0.00 | 0.01 | 0.00 | 97 | 1019.6 |
| 20260830071403 | 62 | 0 | 0.0 | 0.0 | 0.00 | 0.01 | 0.00 | 97 | 1019.5 |
| 20260830071303 | 62 | 0 | 0.0 | 0.0 | 0.00 | 0.01 | 0.00 | 97 | 1019.7 |
| 20260830071203 | 62 | 0 | 0.0 | 0.0 | 0.00 | 0.01 | 0.00 | 97 | 1019.5 |
| 20260830071103 | 62 | 0 | 0.0 | 0.0 | 0.00 | 0.01 | 0.00 | 97 | 1019.6 |
| 20260830071003 | 62 | 0 | 0.0 | 0.0 | 0.00 | 0.01 | 0.00 | 97 | 1019.6 |
| 20260830070903 | 62 | 0 | 0.0 | 0.0 | 0.00 | 0.01 | 0.00 | 97 | 1019.7 |
| 20260830070824 | 62 | 0 | 0.0 | 0.0 | 0.00 | 0.01 | 0.00 | 97 | 1019.6 |
| 20260830070703 | 62 | 0 | 0.0 | 0.0 | 0.00 | 0.01 | 0.00 | 97 | 1019.5 |
| 20260830070624 | 62 | 0 | 0.0 | 0.0 | 0.00 | 0.01 | 0.00 | 98 | 1019.6 |
| 20260830070524 | 62 | 0 | 0.0 | 0.0 | 0.00 | 0.01 | 0.00 | 98 | 1019.5 |
| 20260830070403 | 62 | 0 | 0.0 | 0.0 | 0.00 | 0.01 | 0.00 | 97 | 1019.5 |
| 20260830070303 | 62 | 0 | 0.0 | 0.0 | 0.00 | 0.01 | 0.00 | 98 | 1019.5 |
| 20260830070224 | 62 | 0 | 0.0 | 0.0 | 0.00 | 0.01 | 0.00 | 97 | 1019.6 |
| 20260830070003 | 62 | 0 | 0.0 | 0.0 | 0.00 | 0.01 | 0.00 | 98 | 1019.6 |
| 20260830065903 | 62 | 0 | 0.0 | 0.0 | 0.00 | 0.01 | 0.00 | 98 | 1019.5 |
| 20260830065803 | 62 | 0 | 0.0 | 0.0 | 0.00 | 0.01 | 0.00 | 98 | 1019.5 |
| 20260830065703 | 62 | 0 | 0.0 | 0.0 | 0.00 | 0.01 | 0.00 | 98 | 1019.5 |
| 20260830065603 | 62 | 0 | 0.0 | 0.0 | 0.00 | 0.01 | 0.00 | 98 | 1019.7 |
| 20260830065503 | 62 | 0 | 0.0 | 0.0 | 0.00 | 0.01 | 0.00 | 98 | 1019.6 |
| 20260830065403 | 62 | 0 | 0.0 | 0.0 | 0.00 | 0.01 | 0.00 | 98 | 1019.5 |
| 20260830065306 | 62 | 0 | 0.0 | 0.0 | 0.00 | 0.01 | 0.00 | 98 | 1019.5 |
| 20260830065204 | 62 | 0 | 0.0 | 0.0 | 0.00 | 0.01 | 0.00 | 98 | 1019.6 |
| 20260830065103 | 62 | 0 | 0.0 | 0.0 | 0.00 | 0.01 | 0.00 | 98 | 1019.4 |
| 20260830065003 | 62 | 0 | 0.0 | 0.0 | 0.00 | 0.01 | 0.00 | 98 | 1019.4 |
| 20260830064903 | 62 | 0 | 0.0 | 0.0 | 0.00 | 0.01 | 0.00 | 98 | 1019.5 |
| 20260830064803 | 62 | 0 | 0.0 | 0.0 | 0.00 | 0.01 | 0.00 | 98 | 1019.4 |
| 20260830064703 | 62 | 0 | 0.0 | 0.0 | 0.00 | 0.01 | 0.00 | 98 | 1019.5 |
| 20260830064603 | 62 | 0 | 0.0 | 0.0 | 0.00 | 0.01 | 0.00 | 98 | 1019.4 |
| 20260830064503 | 62 | 0 | 0.0 | 0.0 | 0.00 | 0.01 | 0.00 | 98 | 1019.5 |
| 20260830064403 | 62 | 0 | 0.0 | 0.0 | 0.00 | 0.01 | 0.00 | 98 | 1019.3 |
| 20260830064324 | 62 | 0 | 0.0 | 0.0 | 0.00 | 0.01 | 0.00 | 98 | 1019.5 |
| 20260830064203 | 62 | 0 | 0.0 | 0.0 | 0.00 | 0.01 | 0.00 | 98 | 1019.5 |
| 20260830064103 | 62 | 0 | 0.0 | 0.0 | 0.00 | 0.01 | 0.00 | 98 | 1019.4 |
| 20260830064003 | 61 | 0 | 0.0 | 0.0 | 0.00 | 0.01 | 0.00 | 98 | 1019.2 |
| 20260830063903 | 61 | 0 | 0.0 | 0.0 | 0.00 | 0.01 | 0.00 | 98 | 1019.3 |
| 20260830063803 | 61 | 0 | 0.0 | 0.0 | 0.00 | 0.01 | 0.00 | 98 | 1019.4 |
| 20260830063703 | 61 | 0 | 0.0 | 0.0 | 0.00 | 0.01 | 0.00 | 98 | 1019.3 |
| 20260830063603 | 61 | 0 | 0.0 | 0.0 | 0.00 | 0.01 | 0.00 | 98 | 1019.3 |
| 20260830063503 | 61 | 0 | 0.0 | 0.0 | 0.00 | 0.01 | 0.00 | 98 | 1019.4 |
| 20260830063403 | 61 | 0 | 0.0 | 0.0 | 0.00 | 0.01 | 0.00 | 98 | 1019.3 |
| 20260830063303 | 61 | 0 | 0.0 | 0.0 | 0.00 | 0.01 | 0.00 | 97 | 1019.2 |
| 20260830063224 | 61 | 0 | 0.0 | 0.0 | 0.00 | 0.01 | 0.00 | 97 | 1019.5 |
| 20260830063103 | 61 | 0 | 0.0 | 0.0 | 0.00 | 0.01 | 0.00 | 97 | 1019.3 |
| 20260830063003 | 61 | 0 | 0.0 | 0.0 | 0.00 | 0.01 | 0.00 | 97 | 1019.2 |
| 20260830062903 | 61 | 0 | 0.0 | 0.0 | 0.00 | 0.01 | 0.00 | 97 | 1019.3 |
| 20260830062824 | 61 | 0 | 0.0 | 0.0 | 0.00 | 0.01 | 0.00 | 97 | 1019.4 |
| 20260830062703 | 61 | 0 | 0.0 | 0.0 | 0.00 | 0.01 | 0.00 | 97 | 1019.3 |
| 20260830062603 | 61 | 0 | 0.0 | 0.0 | 0.00 | 0.01 | 0.00 | 97 | 1019.3 |
| 20260830062503 | 61 | 0 | 0.0 | 0.0 | 0.00 | 0.01 | 0.00 | 97 | 1019.3 |
| 20260830062424 | 61 | 0 | 0.0 | 0.0 | 0.00 | 0.01 | 0.00 | 97 | 1019.2 |
| 20260830062305 | 61 | 0 | 0.0 | 0.0 | 0.00 | 0.01 | 0.00 | 97 | 1019.3 |
| 20260830062224 | 61 | 0 | 0.0 | 0.0 | 0.00 | 0.01 | 0.00 | 97 | 1019.3 |
| 20260830062103 | 61 | 0 | 0.0 | 0.0 | 0.00 | 0.01 | 0.00 | 97 | 1019.2 |
| 20260830062003 | 61 | 0 | 0.0 | 0.0 | 0.00 | 0.01 | 0.00 | 97 | 1019.1 |
| 20260830061903 | 61 | 0 | 0.0 | 0.0 | 0.00 | 0.01 | 0.00 | 97 | 1019.2 |
| 20260830061824 | 61 | 0 | 0.0 | 0.0 | 0.00 | 0.01 | 0.00 | 97 | 1019.3 |
| 20260830061703 | 61 | 0 | 0.0 | 0.0 | 0.00 | 0.01 | 0.00 | 97 | 1019.1 |
| 20260830061603 | 61 | 0 | 0.0 | 0.0 | 0.00 | 0.01 | 0.00 | 97 | 1019.2 |
| 20260830061503 | 61 | 0 | 0.0 | 0.0 | 0.00 | 0.01 | 0.00 | 97 | 1019.1 |
| 20260830061424 | 61 | 0 | 0.0 | 0.0 | 0.00 | 0.01 | 0.00 | 97 | 1019.0 |
| 20260830061303 | 61 | 0 | 0.0 | 0.0 | 0.00 | 0.01 | 0.00 | 97 | 1019.0 |
| 20260830061203 | 61 | 0 | 0.0 | 0.0 | 0.00 | 0.01 | 0.00 | 97 | 1019.2 |
| 20260830061103 | 61 | 0 | 0.0 | 0.0 | 0.00 | 0.01 | 0.00 | 97 | 1019.0 |
| 20260830061003 | 61 | 0 | 0.0 | 0.0 | 0.00 | 0.01 | 0.00 | 97 | 1019.1 |
| 20260830060903 | 61 | 0 | 0.0 | 0.0 | 0.00 | 0.01 | 0.00 | 97 | 1019.2 |
| 20260830060803 | 61 | 0 | 0.0 | 0.0 | 0.00 | 0.01 | 0.00 | 97 | 1019.1 |
| 20260830060724 | 61 | 0 | 0.0 | 0.0 | 0.00 | 0.01 | 0.00 | 97 | 1019.0 |
| 20260830060603 | 61 | 0 | 0.0 | 0.0 | 0.00 | 0.01 | 0.00 | 97 | 1019.1 |
| 20260830060504 | 61 | 0 | 0.0 | 0.0 | 0.00 | 0.01 | 0.00 | 97 | 1019.1 |
| 20260830060403 | 61 | 0 | 0.0 | 0.0 | 0.00 | 0.01 | 0.00 | 97 | 1019.0 |
| 20260830060303 | 61 | 0 | 0.0 | 0.0 | 0.00 | 0.01 | 0.00 | 97 | 1019.0 |
| 20260830060203 | 61 | 0 | 0.0 | 0.0 | 0.00 | 0.01 | 0.00 | 97 | 1019.0 |
| 20260830060024 | 61 | 0 | 0.0 | 0.0 | 0.00 | 0.01 | 0.00 | 97 | 1019.2 |
| 20260830055903 | 61 | 0 | 0.0 | 0.0 | 0.00 | 0.01 | 0.00 | 97 | 1019.0 |
| 20260830055803 | 61 | 0 | 0.0 | 0.0 | 0.00 | 0.01 | 0.00 | 97 | 1019.0 |
| 20260830055703 | 61 | 0 | 0.0 | 0.0 | 0.00 | 0.01 | 0.00 | 97 | 1019.1 |
| 20260830055603 | 61 | 0 | 0.0 | 0.0 | 0.00 | 0.01 | 0.00 | 97 | 1018.9 |
| 20260830055503 | 61 | 0 | 0.0 | 0.0 | 0.00 | 0.01 | 0.00 | 97 | 1019.0 |
| 20260830055403 | 62 | 0 | 0.0 | 0.0 | 0.00 | 0.01 | 0.00 | 97 | 1019.1 |
| 20260830055306 | 62 | 0 | 0.0 | 0.0 | 0.00 | 0.01 | 0.00 | 97 | 1019.0 |
| 20260830055203 | 62 | 0 | 0.0 | 0.0 | 0.00 | 0.01 | 0.00 | 97 | 1019.0 |
| 20260830055103 | 62 | 0 | 0.0 | 0.0 | 0.00 | 0.01 | 0.00 | 97 | 1019.0 |
| 20260830055003 | 62 | 0 | 0.0 | 0.0 | 0.00 | 0.01 | 0.00 | 97 | 1018.9 |
| 20260830054924 | 62 | 0 | 0.0 | 0.0 | 0.00 | 0.01 | 0.00 | 97 | 1019.1 |
| 20260830054803 | 62 | 0 | 0.0 | 0.0 | 0.00 | 0.01 | 0.00 | 97 | 1019.0 |
| 20260830054703 | 62 | 0 | 0.0 | 0.0 | 0.00 | 0.01 | 0.00 | 97 | 1018.9 |
| 20260830054603 | 62 | 0 | 0.0 | 0.0 | 0.00 | 0.01 | 0.00 | 97 | 1019.0 |
| 20260830054503 | 62 | 0 | 0.0 | 0.0 | 0.00 | 0.01 | 0.00 | 97 | 1019.0 |
| 20260830054403 | 62 | 0 | 0.0 | 0.0 | 0.00 | 0.01 | 0.00 | 97 | 1019.1 |
| 20260830054303 | 62 | 0 | 0.0 | 0.0 | 0.00 | 0.01 | 0.00 | 97 | 1018.9 |
| 20260830054224 | 62 | 0 | 0.0 | 0.0 | 0.00 | 0.01 | 0.00 | 97 | 1019.0 |
| 20260830054103 | 62 | 0 | 0.0 | 0.0 | 0.00 | 0.01 | 0.00 | 97 | 1019.0 |
| 20260830054024 | 62 | 0 | 0.0 | 0.0 | 0.00 | 0.01 | 0.00 | 97 | 1018.9 |
| 20260830053903 | 62 | 0 | 0.0 | 0.0 | 0.00 | 0.01 | 0.00 | 97 | 1018.9 |
| 20260830053803 | 62 | 0 | 0.0 | 0.0 | 0.00 | 0.01 | 0.00 | 98 | 1019.0 |
| 20260830053703 | 62 | 0 | 0.0 | 0.0 | 0.00 | 0.01 | 0.00 | 98 | 1018.9 |
| 20260830053603 | 62 | 0 | 0.0 | 0.0 | 0.00 | 0.01 | 0.00 | 98 | 1018.8 |
| 20260830053503 | 62 | 0 | 0.0 | 0.0 | 0.00 | 0.01 | 0.00 | 98 | 1019.0 |
| 20260830053403 | 62 | 0 | 0.0 | 0.0 | 0.00 | 0.01 | 0.00 | 98 | 1019.0 |
| 20260830053303 | 62 | 0 | 0.0 | 0.0 | 0.00 | 0.01 | 0.00 | 98 | 1018.9 |
| 20260830053203 | 62 | 0 | 0.0 | 0.0 | 0.00 | 0.01 | 0.00 | 98 | 1019.0 |
| 20260830053103 | 62 | 0 | 0.0 | 0.0 | 0.00 | 0.01 | 0.00 | 98 | 1019.2 |
| 20260830053024 | 62 | 0 | 0.0 | 0.0 | 0.00 | 0.01 | 0.00 | 98 | 1019.1 |
| 20260830052903 | 62 | 0 | 0.0 | 0.0 | 0.00 | 0.01 | 0.00 | 98 | 1019.0 |
| 20260830052803 | 62 | 0 | 0.0 | 0.0 | 0.00 | 0.01 | 0.00 | 98 | 1019.0 |
| 20260830052724 | 62 | 0 | 0.0 | 0.0 | 0.00 | 0.01 | 0.00 | 98 | 1018.8 |
| 20260830052603 | 62 | 0 | 0.0 | 0.0 | 0.00 | 0.01 | 0.00 | 98 | 1018.8 |
| 20260830052503 | 62 | 0 | 0.0 | 0.0 | 0.00 | 0.01 | 0.00 | 98 | 1019.1 |
| 20260830052403 | 62 | 0 | 0.0 | 0.0 | 0.00 | 0.01 | 0.00 | 98 | 1018.8 |
| 20260830052306 | 62 | 0 | 0.0 | 0.0 | 0.00 | 0.01 | 0.00 | 98 | 1018.8 |
| 20260830052203 | 62 | 0 | 0.0 | 0.0 | 0.00 | 0.01 | 0.00 | 98 | 1018.9 |
| 20260830052103 | 62 | 0 | 0.0 | 0.0 | 0.00 | 0.01 | 0.00 | 98 | 1019.0 |
| 20260830052003 | 62 | 0 | 0.0 | 0.0 | 0.00 | 0.01 | 0.00 | 98 | 1019.0 |
| 20260830051903 | 62 | 0 | 0.0 | 0.0 | 0.00 | 0.01 | 0.00 | 98 | 1018.9 |
| 20260830051803 | 62 | 0 | 0.0 | 0.0 | 0.00 | 0.01 | 0.00 | 98 | 1018.8 |
| 20260830051703 | 62 | 0 | 0.0 | 0.0 | 0.00 | 0.01 | 0.00 | 98 | 1019.1 |
| 20260830051603 | 62 | 0 | 0.0 | 0.0 | 0.00 | 0.01 | 0.00 | 98 | 1019.0 |
| 20260830051503 | 62 | 0 | 0.0 | 0.0 | 0.00 | 0.01 | 0.00 | 98 | 1018.8 |
| 20260830051403 | 62 | 0 | 0.0 | 0.0 | 0.00 | 0.01 | 0.00 | 98 | 1019.1 |
| 20260830051303 | 62 | 0 | 0.0 | 0.0 | 0.00 | 0.01 | 0.00 | 98 | 1019.0 |
| 20260830051203 | 62 | 0 | 0.0 | 0.0 | 0.00 | 0.01 | 0.00 | 98 | 1019.0 |
| 20260830051103 | 62 | 0 | 0.0 | 0.0 | 0.00 | 0.01 | 0.00 | 98 | 1018.8 |
| 20260830051003 | 62 | 0 | 0.0 | 0.0 | 0.00 | 0.01 | 0.00 | 98 | 1019.1 |
| 20260830050903 | 62 | 0 | 0.0 | 0.0 | 0.00 | 0.01 | 0.00 | 98 | 1018.9 |
| 20260830050803 | 62 | 0 | 0.0 | 0.0 | 0.00 | 0.01 | 0.00 | 98 | 1019.0 |
| 20260830050703 | 62 | 0 | 0.0 | 0.0 | 0.00 | 0.01 | 0.00 | 98 | 1018.9 |
| 20260830050603 | 62 | 0 | 0.0 | 0.0 | 0.00 | 0.01 | 0.00 | 98 | 1018.7 |
| 20260830050503 | 62 | 0 | 0.0 | 0.0 | 0.00 | 0.01 | 0.00 | 98 | 1018.9 |
| 20260830050403 | 62 | 0 | 0.0 | 0.0 | 0.00 | 0.01 | 0.00 | 98 | 1018.8 |
| 20260830050303 | 62 | 0 | 0.0 | 0.0 | 0.00 | 0.01 | 0.00 | 98 | 1019.0 |
| 20260830050203 | 62 | 0 | 0.0 | 0.0 | 0.00 | 0.01 | 0.00 | 98 | 1018.9 |
| 20260830050003 | 62 | 0 | 0.0 | 0.0 | 0.00 | 0.01 | 0.00 | 98 | 1018.6 |
| 20260830045903 | 62 | 0 | 0.0 | 1.0 | 0.00 | 0.01 | 0.00 | 98 | 1018.6 |
| 20260830045803 | 62 | 67 | 0.0 | 1.0 | 0.00 | 0.01 | 0.00 | 98 | 1018.7 |
| 20260830045703 | 62 | 67 | 0.0 | 1.0 | 0.00 | 0.01 | 0.00 | 98 | 1018.9 |
| 20260830045603 | 62 | 67 | 0.0 | 1.0 | 0.00 | 0.01 | 0.00 | 98 | 1018.8 |
| 20260830045503 | 62 | 67 | 0.0 | 1.0 | 0.00 | 0.01 | 0.00 | 98 | 1018.8 |
| 20260830045403 | 62 | 67 | 0.0 | 1.0 | 0.00 | 0.01 | 0.00 | 98 | 1018.9 |
| 20260830045306 | 62 | 67 | 0.0 | 1.0 | 0.00 | 0.01 | 0.00 | 98 | 1018.8 |
| 20260830045203 | 62 | 67 | 0.0 | 1.0 | 0.00 | 0.01 | 0.00 | 98 | 1018.9 |
| 20260830045104 | 62 | 67 | 0.0 | 1.0 | 0.00 | 0.01 | 0.00 | 98 | 1018.8 |
| 20260830045024 | 62 | 67 | 0.0 | 1.0 | 0.00 | 0.01 | 0.00 | 98 | 1018.9 |
| 20260830044924 | 62 | 67 | 0.0 | 1.0 | 0.00 | 0.01 | 0.00 | 98 | 1019.0 |
| 20260830044824 | 62 | 0 | 0.0 | 0.0 | 0.00 | 0.01 | 0.00 | 98 | 1018.9 |
| 20260830044703 | 62 | 0 | 0.0 | 0.0 | 0.00 | 0.01 | 0.00 | 98 | 1018.9 |
| 20260830044603 | 62 | 0 | 0.0 | 0.0 | 0.00 | 0.01 | 0.00 | 99 | 1018.9 |
| 20260830044503 | 62 | 0 | 0.0 | 0.0 | 0.00 | 0.01 | 0.00 | 98 | 1018.9 |
| 20260830044403 | 62 | 0 | 0.0 | 0.0 | 0.00 | 0.01 | 0.00 | 99 | 1019.0 |
| 20260830044303 | 62 | 0 | 0.0 | 0.0 | 0.00 | 0.01 | 0.00 | 99 | 1019.0 |
| 20260830044224 | 62 | 0 | 0.0 | 0.0 | 0.00 | 0.01 | 0.00 | 99 | 1018.9 |
| 20260830044103 | 62 | 0 | 0.0 | 0.0 | 0.00 | 0.01 | 0.00 | 99 | 1019.0 |
| 20260830044024 | 62 | 0 | 0.0 | 0.0 | 0.00 | 0.01 | 0.00 | 99 | 1019.0 |
| 20260830043924 | 62 | 0 | 0.0 | 0.0 | 0.00 | 0.01 | 0.00 | 99 | 1018.9 |
| 20260830043803 | 62 | 0 | 0.0 | 0.0 | 0.00 | 0.01 | 0.00 | 99 | 1018.8 |
| 20260830043703 | 62 | 0 | 0.0 | 0.0 | 0.00 | 0.01 | 0.00 | 99 | 1018.9 |
| 20260830043603 | 62 | 0 | 0.0 | 0.0 | 0.00 | 0.01 | 0.00 | 99 | 1018.7 |
| 20260830043503 | 62 | 0 | 0.0 | 0.0 | 0.00 | 0.01 | 0.00 | 99 | 1019.0 |
| 20260830043403 | 62 | 0 | 0.0 | 0.0 | 0.00 | 0.01 | 0.00 | 99 | 1019.0 |
| 20260830043303 | 62 | 0 | 0.0 | 0.0 | 0.00 | 0.01 | 0.00 | 99 | 1019.2 |
| 20260830043224 | 62 | 0 | 0.0 | 0.0 | 0.00 | 0.01 | 0.00 | 99 | 1018.9 |
| 20260830043103 | 62 | 0 | 0.0 | 0.0 | 0.00 | 0.01 | 0.00 | 99 | 1019.0 |
| 20260830043003 | 62 | 0 | 0.0 | 0.0 | 0.00 | 0.01 | 0.00 | 99 | 1018.9 |
| 20260830042903 | 62 | 0 | 0.0 | 0.0 | 0.00 | 0.01 | 0.00 | 99 | 1019.2 |
| 20260830042803 | 62 | 0 | 0.0 | 0.0 | 0.00 | 0.01 | 0.00 | 99 | 1019.0 |
| 20260830042703 | 62 | 0 | 0.0 | 0.0 | 0.00 | 0.01 | 0.00 | 99 | 1018.9 |
| 20260830042624 | 62 | 0 | 0.0 | 0.0 | 0.00 | 0.01 | 0.00 | 99 | 1019.1 |
| 20260830042503 | 62 | 0 | 0.0 | 0.0 | 0.00 | 0.01 | 0.00 | 99 | 1018.9 |
| 20260830042403 | 62 | 0 | 0.0 | 0.0 | 0.00 | 0.01 | 0.00 | 99 | 1019.3 |
| 20260830042305 | 62 | 0 | 0.0 | 0.0 | 0.00 | 0.01 | 0.00 | 99 | 1019.1 |
| 20260830042203 | 62 | 0 | 0.0 | 0.0 | 0.00 | 0.01 | 0.00 | 99 | 1019.2 |
| 20260830042103 | 62 | 0 | 0.0 | 0.0 | 0.00 | 0.01 | 0.00 | 99 | 1019.1 |
| 20260830042003 | 62 | 0 | 0.0 | 0.0 | 0.00 | 0.01 | 0.00 | 99 | 1019.1 |
| 20260830041903 | 62 | 0 | 0.0 | 0.0 | 0.00 | 0.01 | 0.00 | 99 | 1019.1 |
| 20260830041824 | 62 | 0 | 0.0 | 0.0 | 0.00 | 0.01 | 0.00 | 99 | 1018.9 |
| 20260830041703 | 62 | 0 | 0.0 | 0.0 | 0.00 | 0.01 | 0.00 | 99 | 1019.0 |
| 20260830041603 | 62 | 0 | 0.0 | 0.0 | 0.00 | 0.01 | 0.00 | 99 | 1018.9 |
| 20260830041504 | 62 | 0 | 0.0 | 0.0 | 0.00 | 0.01 | 0.00 | 99 | 1018.9 |
| 20260830041403 | 62 | 0 | 0.0 | 0.0 | 0.00 | 0.01 | 0.00 | 99 | 1019.0 |
| 20260830041303 | 62 | 0 | 0.0 | 0.0 | 0.00 | 0.01 | 0.00 | 99 | 1019.0 |
| 20260830041203 | 62 | 0 | 0.0 | 0.0 | 0.00 | 0.01 | 0.00 | 99 | 1018.9 |
| 20260830041103 | 62 | 0 | 0.0 | 0.0 | 0.00 | 0.01 | 0.00 | 99 | 1019.0 |
| 20260830041004 | 62 | 0 | 0.0 | 0.0 | 0.00 | 0.01 | 0.00 | 99 | 1019.0 |
| 20260830040903 | 62 | 0 | 0.0 | 0.0 | 0.00 | 0.01 | 0.00 | 99 | 1019.0 |
| 20260830040803 | 62 | 0 | 0.0 | 0.0 | 0.00 | 0.01 | 0.00 | 99 | 1019.0 |
| 20260830040703 | 62 | 0 | 0.0 | 0.0 | 0.00 | 0.01 | 0.00 | 99 | 1019.0 |
| 20260830040603 | 62 | 0 | 0.0 | 0.0 | 0.00 | 0.01 | 0.00 | 99 | 1019.1 |
| 20260830040503 | 62 | 0 | 0.0 | 0.0 | 0.00 | 0.01 | 0.00 | 99 | 1019.0 |
| 20260830040403 | 62 | 0 | 0.0 | 0.0 | 0.00 | 0.01 | 0.00 | 99 | 1019.0 |
| 20260830040303 | 62 | 0 | 0.0 | 0.0 | 0.00 | 0.01 | 0.00 | 99 | 1019.0 |
| 20260830040225 | 62 | 0 | 0.0 | 0.0 | 0.00 | 0.01 | 0.00 | 99 | 1019.1 |
| 20260830040003 | 63 | 0 | 0.0 | 0.0 | 0.00 | 0.01 | 0.00 | 99 | 1019.1 |
| 20260830035903 | 63 | 0 | 0.0 | 0.0 | 0.00 | 0.01 | 0.00 | 99 | 1019.0 |
| 20260830035825 | 63 | 0 | 0.0 | 0.0 | 0.00 | 0.01 | 0.00 | 99 | 1019.0 |
| 20260830035703 | 63 | 0 | 0.0 | 0.0 | 0.00 | 0.01 | 0.00 | 99 | 1019.0 |
| 20260830035603 | 63 | 43 | 0.0 | 2.0 | 0.00 | 0.01 | 0.00 | 99 | 1019.1 |
| 20260830035503 | 63 | 43 | 0.0 | 2.0 | 0.00 | 0.01 | 0.00 | 99 | 1019.0 |
| 20260830035424 | 62 | 43 | 0.0 | 2.0 | 0.00 | 0.01 | 0.00 | 99 | 1019.1 |
| 20260830035324 | 62 | 43 | 0.0 | 2.0 | 0.00 | 0.01 | 0.00 | 99 | 1019.0 |
| 20260830035203 | 62 | 43 | 0.0 | 2.0 | 0.00 | 0.01 | 0.00 | 99 | 1019.2 |
| 20260830035103 | 62 | 43 | 0.0 | 2.0 | 0.00 | 0.01 | 0.00 | 99 | 1019.1 |
| 20260830035024 | 62 | 43 | 0.0 | 2.0 | 0.00 | 0.01 | 0.00 | 99 | 1019.2 |
| 20260830034924 | 63 | 43 | 0.0 | 2.0 | 0.00 | 0.01 | 0.00 | 99 | 1019.1 |
| 20260830034803 | 63 | 33 | 0.0 | 2.0 | 0.00 | 0.01 | 0.00 | 99 | 1019.0 |
| 20260830034703 | 63 | 33 | 0.0 | 2.0 | 0.00 | 0.01 | 0.00 | 99 | 1019.3 |
| 20260830034624 | 63 | 32 | 0.0 | 2.0 | 0.00 | 0.01 | 0.00 | 99 | 1019.0 |
| 20260830034504 | 63 | 18 | 0.0 | 1.0 | 0.00 | 0.01 | 0.00 | 99 | 1019.3 |
| 20260830034403 | 63 | 18 | 0.0 | 1.0 | 0.00 | 0.01 | 0.00 | 99 | 1019.0 |
| 20260830034303 | 63 | 18 | 0.0 | 1.0 | 0.00 | 0.01 | 0.00 | 99 | 1019.2 |
| 20260830034203 | 63 | 18 | 0.0 | 1.0 | 0.00 | 0.01 | 0.00 | 99 | 1019.2 |
| 20260830034103 | 63 | 22 | 0.0 | 1.0 | 0.00 | 0.01 | 0.00 | 99 | 1019.1 |
| 20260830034003 | 63 | 27 | 0.0 | 1.0 | 0.00 | 0.01 | 0.00 | 99 | 1019.2 |
| 20260830033925 | 63 | 34 | 0.0 | 2.0 | 0.00 | 0.01 | 0.00 | 99 | 1019.2 |
| 20260830033824 | 63 | 36 | 0.0 | 2.0 | 0.00 | 0.01 | 0.00 | 98 | 1019.2 |
| 20260830033703 | 63 | 40 | 0.0 | 2.0 | 0.00 | 0.01 | 0.00 | 98 | 1019.1 |
| 20260830033624 | 63 | 40 | 1.0 | 2.0 | 0.00 | 0.01 | 0.00 | 98 | 1019.1 |
| 20260830033503 | 63 | 40 | 1.0 | 2.0 | 0.00 | 0.01 | 0.00 | 99 | 1019.2 |
| 20260830033403 | 63 | 40 | 1.0 | 2.0 | 0.00 | 0.01 | 0.00 | 98 | 1019.2 |
| 20260830033303 | 63 | 40 | 1.0 | 2.0 | 0.00 | 0.01 | 0.00 | 98 | 1019.3 |
| 20260830033203 | 63 | 38 | 1.0 | 2.0 | 0.00 | 0.01 | 0.00 | 98 | 1019.2 |
| 20260830033103 | 63 | 39 | 1.0 | 2.0 | 0.00 | 0.01 | 0.00 | 98 | 1019.2 |
| 20260830033003 | 63 | 40 | 1.0 | 2.0 | 0.00 | 0.01 | 0.00 | 98 | 1019.2 |
| 20260830032903 | 63 | 41 | 1.0 | 2.0 | 0.00 | 0.01 | 0.00 | 98 | 1019.2 |
| 20260830032803 | 63 | 35 | 0.0 | 1.0 | 0.00 | 0.01 | 0.00 | 98 | 1019.1 |
| 20260830032703 | 63 | 34 | 0.0 | 1.0 | 0.00 | 0.01 | 0.00 | 98 | 1019.2 |
| 20260830032624 | 63 | 32 | 0.0 | 1.0 | 0.00 | 0.01 | 0.00 | 98 | 1019.2 |
| 20260830032524 | 63 | 24 | 0.0 | 1.0 | 0.00 | 0.01 | 0.00 | 98 | 1019.4 |
| 20260830032424 | 63 | 24 | 0.0 | 1.0 | 0.00 | 0.01 | 0.00 | 98 | 1019.3 |
| 20260830032306 | 63 | 24 | 0.0 | 1.0 | 0.00 | 0.01 | 0.00 | 98 | 1019.3 |
| 20260830032203 | 63 | 0 | 0.0 | 0.0 | 0.00 | 0.01 | 0.00 | 98 | 1019.3 |
| 20260830032103 | 63 | 0 | 0.0 | 0.0 | 0.00 | 0.01 | 0.00 | 98 | 1019.2 |
| 20260830032003 | 63 | 0 | 0.0 | 0.0 | 0.00 | 0.01 | 0.00 | 98 | 1019.3 |
| 20260830031903 | 63 | 0 | 0.0 | 0.0 | 0.00 | 0.01 | 0.00 | 98 | 1019.1 |
| 20260830031803 | 63 | 0 | 0.0 | 0.0 | 0.00 | 0.01 | 0.00 | 98 | 1019.4 |
| 20260830031724 | 63 | 0 | 0.0 | 0.0 | 0.00 | 0.01 | 0.00 | 98 | 1019.3 |
| 20260830031603 | 63 | 0 | 0.0 | 0.0 | 0.00 | 0.01 | 0.00 | 98 | 1019.2 |
| 20260830031503 | 63 | 45 | 0.0 | 2.0 | 0.00 | 0.01 | 0.00 | 98 | 1019.2 |
| 20260830031403 | 63 | 35 | 0.0 | 2.0 | 0.00 | 0.01 | 0.00 | 98 | 1019.3 |
| 20260830031324 | 63 | 33 | 0.0 | 2.0 | 0.00 | 0.01 | 0.00 | 98 | 1019.3 |
| 20260830031203 | 63 | 33 | 0.0 | 2.0 | 0.00 | 0.01 | 0.00 | 98 | 1019.3 |
| 20260830031103 | 63 | 32 | 0.0 | 2.0 | 0.00 | 0.01 | 0.00 | 98 | 1019.4 |
| 20260830031003 | 63 | 32 | 0.0 | 2.0 | 0.00 | 0.01 | 0.00 | 98 | 1019.3 |
| 20260830030903 | 63 | 32 | 0.0 | 2.0 | 0.00 | 0.01 | 0.00 | 98 | 1019.5 |
| 20260830030803 | 63 | 32 | 0.0 | 2.0 | 0.00 | 0.01 | 0.00 | 98 | 1019.4 |
| 20260830030703 | 63 | 32 | 0.0 | 2.0 | 0.00 | 0.01 | 0.00 | 98 | 1019.3 |
| 20260830030603 | 63 | 32 | 0.0 | 2.0 | 0.00 | 0.01 | 0.00 | 98 | 1019.4 |
| 20260830030504 | 63 | 25 | 0.0 | 1.0 | 0.00 | 0.01 | 0.00 | 98 | 1019.5 |
| 20260830030403 | 63 | 24 | 0.0 | 1.0 | 0.00 | 0.01 | 0.00 | 98 | 1019.4 |
| 20260830030303 | 63 | 24 | 0.0 | 1.0 | 0.00 | 0.01 | 0.00 | 98 | 1019.5 |
| 20260830030203 | 63 | 26 | 0.0 | 1.0 | 0.00 | 0.01 | 0.00 | 98 | 1019.5 |
| 20260830030104 | 63 | 25 | 0.0 | 1.0 | 0.00 | 0.01 | 0.00 | 98 | 1019.5 |
| 20260830030003 | 63 | 25 | 0.0 | 1.0 | 0.00 | 0.01 | 0.00 | 98 | 1019.5 |
| 20260830025903 | 63 | 27 | 0.0 | 1.0 | 0.00 | 0.01 | 0.00 | 98 | 1019.2 |
| 20260830025824 | 63 | 27 | 0.0 | 1.0 | 0.00 | 0.01 | 0.00 | 98 | 1019.4 |
| 20260830025703 | 63 | 27 | 0.0 | 1.0 | 0.00 | 0.01 | 0.00 | 98 | 1019.5 |
| 20260830025603 | 63 | 29 | 0.0 | 1.0 | 0.00 | 0.01 | 0.00 | 98 | 1019.4 |
| 20260830025503 | 63 | 30 | 0.0 | 1.0 | 0.00 | 0.01 | 0.00 | 98 | 1019.6 |
| 20260830025403 | 63 | 30 | 0.0 | 1.0 | 0.00 | 0.01 | 0.00 | 98 | 1019.5 |
| 20260830025306 | 63 | 34 | 0.0 | 1.0 | 0.00 | 0.01 | 0.00 | 98 | 1019.5 |
| 20260830025203 | 63 | 35 | 0.0 | 1.0 | 0.00 | 0.01 | 0.00 | 98 | 1019.6 |
| 20260830025124 | 63 | 32 | 0.0 | 1.0 | 0.00 | 0.01 | 0.00 | 98 | 1019.5 |
| 20260830025003 | 63 | 32 | 0.0 | 1.0 | 0.00 | 0.01 | 0.00 | 98 | 1019.4 |
| 20260830024903 | 63 | 32 | 0.0 | 1.0 | 0.00 | 0.01 | 0.00 | 98 | 1019.7 |
| 20260830024803 | 63 | 31 | 0.0 | 1.0 | 0.00 | 0.01 | 0.00 | 98 | 1019.5 |
| 20260830024703 | 63 | 31 | 0.0 | 1.0 | 0.00 | 0.01 | 0.00 | 98 | 1019.6 |
| 20260830024604 | 63 | 31 | 0.0 | 1.0 | 0.00 | 0.01 | 0.00 | 98 | 1019.5 |
| 20260830024503 | 63 | 30 | 0.0 | 1.0 | 0.00 | 0.01 | 0.00 | 98 | 1019.5 |
| 20260830024403 | 62 | 29 | 0.0 | 1.0 | 0.00 | 0.01 | 0.00 | 98 | 1019.5 |
| 20260830024303 | 62 | 27 | 0.0 | 1.0 | 0.00 | 0.01 | 0.00 | 98 | 1019.6 |
| 20260830024204 | 62 | 22 | 0.0 | 1.0 | 0.00 | 0.01 | 0.00 | 98 | 1019.6 |
| 20260830024103 | 62 | 9 | 0.0 | 1.0 | 0.00 | 0.01 | 0.00 | 98 | 1019.5 |
| 20260830024003 | 62 | 0 | 0.0 | 0.0 | 0.00 | 0.01 | 0.00 | 98 | 1019.4 |
| 20260830023903 | 62 | 0 | 0.0 | 0.0 | 0.00 | 0.01 | 0.00 | 98 | 1019.5 |
| 20260830023803 | 62 | 0 | 0.0 | 0.0 | 0.00 | 0.01 | 0.00 | 98 | 1019.6 |
| 20260830023703 | 62 | 0 | 0.0 | 0.0 | 0.00 | 0.01 | 0.00 | 98 | 1019.4 |
| 20260830023603 | 62 | 0 | 0.0 | 0.0 | 0.00 | 0.01 | 0.00 | 98 | 1019.6 |
| 20260830023503 | 62 | 24 | 0.0 | 1.0 | 0.00 | 0.01 | 0.00 | 98 | 1019.6 |
| 20260830023403 | 62 | 24 | 0.0 | 1.0 | 0.00 | 0.01 | 0.00 | 98 | 1019.7 |
| 20260830023303 | 62 | 24 | 0.0 | 1.0 | 0.00 | 0.01 | 0.00 | 98 | 1019.5 |
| 20260830023203 | 63 | 24 | 0.0 | 1.0 | 0.00 | 0.01 | 0.00 | 98 | 1019.7 |
| 20260830023124 | 63 | 24 | 0.0 | 1.0 | 0.00 | 0.01 | 0.00 | 98 | 1019.6 |
| 20260830023003 | 63 | 24 | 0.0 | 1.0 | 0.00 | 0.01 | 0.00 | 98 | 1019.8 |
| 20260830022903 | 63 | 24 | 0.0 | 1.0 | 0.00 | 0.01 | 0.00 | 98 | 1019.6 |
| 20260830022803 | 63 | 24 | 0.0 | 1.0 | 0.00 | 0.01 | 0.00 | 98 | 1019.7 |
| 20260830022703 | 63 | 24 | 0.0 | 1.0 | 0.00 | 0.01 | 0.00 | 98 | 1019.6 |
| 20260830022603 | 63 | 24 | 0.0 | 1.0 | 0.00 | 0.01 | 0.00 | 98 | 1019.7 |
| 20260830022503 | 63 | 25 | 0.0 | 1.0 | 0.00 | 0.01 | 0.00 | 98 | 1019.8 |
| 20260830022424 | 63 | 27 | 0.0 | 1.0 | 0.00 | 0.01 | 0.00 | 98 | 1019.6 |
| 20260830022324 | 63 | 27 | 0.0 | 1.0 | 0.00 | 0.01 | 0.00 | 98 | 1019.7 |
| 20260830022224 | 63 | 27 | 0.0 | 1.0 | 0.00 | 0.01 | 0.00 | 98 | 1019.7 |
| 20260830022103 | 63 | 27 | 0.0 | 1.0 | 0.00 | 0.01 | 0.00 | 98 | 1019.6 |
| 20260830022003 | 63 | 27 | 0.0 | 1.0 | 0.00 | 0.01 | 0.00 | 98 | 1019.8 |
| 20260830021903 | 63 | 27 | 0.0 | 1.0 | 0.00 | 0.01 | 0.00 | 98 | 1019.9 |
| 20260830021824 | 63 | 27 | 0.0 | 1.0 | 0.00 | 0.01 | 0.00 | 98 | 1019.7 |
| 20260830021703 | 63 | 27 | 0.0 | 1.0 | 0.00 | 0.01 | 0.00 | 98 | 1019.9 |
| 20260830021624 | 63 | 27 | 0.0 | 1.0 | 0.00 | 0.01 | 0.00 | 98 | 1020.1 |
| 20260830021504 | 63 | 0 | 0.0 | 0.0 | 0.00 | 0.01 | 0.00 | 98 | 1019.8 |
| 20260830021403 | 63 | 0 | 0.0 | 0.0 | 0.00 | 0.01 | 0.00 | 98 | 1019.6 |
| 20260830021303 | 63 | 0 | 0.0 | 0.0 | 0.00 | 0.01 | 0.00 | 98 | 1019.8 |
| 20260830021224 | 63 | 0 | 0.0 | 0.0 | 0.00 | 0.01 | 0.00 | 98 | 1019.7 |
| 20260830021103 | 63 | 0 | 0.0 | 0.0 | 0.00 | 0.01 | 0.00 | 98 | 1019.8 |
| 20260830021002 | 63 | 0 | 0.0 | 0.0 | 0.00 | 0.01 | 0.00 | 98 | 1019.7 |
| 20260830020903 | 63 | 28 | 0.0 | 1.0 | 0.00 | 0.01 | 0.00 | 98 | 1019.5 |
| 20260830020802 | 63 | 28 | 0.0 | 1.0 | 0.00 | 0.01 | 0.00 | 98 | 1019.7 |
| 20260830020703 | 63 | 28 | 0.0 | 1.0 | 0.00 | 0.01 | 0.00 | 98 | 1019.9 |
| 20260830020624 | 63 | 28 | 0.0 | 1.0 | 0.00 | 0.01 | 0.00 | 98 | 1019.8 |
| 20260830020503 | 63 | 28 | 0.0 | 1.0 | 0.00 | 0.01 | 0.00 | 98 | 1019.7 |
| 20260830020424 | 63 | 28 | 0.0 | 1.0 | 0.00 | 0.01 | 0.00 | 98 | 1019.7 |
| 20260830020324 | 63 | 28 | 0.0 | 1.0 | 0.00 | 0.01 | 0.00 | 98 | 1019.6 |
| 20260830020203 | 63 | 28 | 0.0 | 1.0 | 0.00 | 0.01 | 0.00 | 98 | 1019.6 |
| 20260830020103 | 63 | 28 | 0.0 | 1.0 | 0.00 | 0.01 | 0.00 | 98 | 1019.8 |
| 20260830020002 | 63 | 28 | 0.0 | 1.0 | 0.00 | 0.01 | 0.00 | 98 | 1019.8 |
| 20260830015903 | 63 | 0 | 0.0 | 0.0 | 0.00 | 0.01 | 0.00 | 98 | 1019.8 |
| 20260830015802 | 63 | 0 | 0.0 | 0.0 | 0.00 | 0.01 | 0.00 | 98 | 1019.7 |
| 20260830015703 | 63 | 9 | 0.0 | 1.0 | 0.00 | 0.01 | 0.00 | 98 | 1019.8 |
| 20260830015623 | 63 | 9 | 0.0 | 1.0 | 0.00 | 0.01 | 0.00 | 98 | 1019.7 |
| 20260830015502 | 63 | 8 | 0.0 | 1.0 | 0.00 | 0.01 | 0.00 | 98 | 1019.9 |
| 20260830015402 | 63 | 8 | 0.0 | 1.0 | 0.00 | 0.01 | 0.00 | 98 | 1019.9 |
| 20260830015306 | 63 | 8 | 0.0 | 1.0 | 0.00 | 0.01 | 0.00 | 98 | 1019.8 |
| 20260830015202 | 63 | 8 | 0.0 | 1.0 | 0.00 | 0.01 | 0.00 | 98 | 1019.9 |
| 20260830015123 | 63 | 18 | 0.0 | 1.0 | 0.00 | 0.01 | 0.00 | 98 | 1019.7 |
| 20260830015024 | 63 | 26 | 0.0 | 1.0 | 0.00 | 0.01 | 0.00 | 98 | 1019.8 |
| 20260830014902 | 63 | 27 | 0.0 | 1.0 | 0.00 | 0.01 | 0.00 | 98 | 1019.8 |
| 20260830014803 | 63 | 27 | 0.0 | 1.0 | 0.00 | 0.01 | 0.00 | 98 | 1019.9 |
| 20260830014702 | 63 | 27 | 0.0 | 1.0 | 0.00 | 0.01 | 0.00 | 98 | 1019.7 |
| 20260830014603 | 63 | 31 | 0.0 | 1.0 | 0.00 | 0.01 | 0.00 | 98 | 1019.9 |
| 20260830014503 | 63 | 35 | 0.0 | 1.0 | 0.00 | 0.01 | 0.00 | 98 | 1019.8 |
| 20260830014424 | 63 | 35 | 0.0 | 1.0 | 0.00 | 0.01 | 0.00 | 98 | 1019.8 |
| 20260830014303 | 63 | 35 | 0.0 | 1.0 | 0.00 | 0.01 | 0.00 | 98 | 1019.7 |
| 20260830014203 | 63 | 34 | 0.0 | 1.0 | 0.00 | 0.01 | 0.00 | 98 | 1020.0 |
| 20260830014124 | 63 | 34 | 0.0 | 1.0 | 0.00 | 0.01 | 0.00 | 98 | 1019.8 |
| 20260830014023 | 63 | 32 | 0.0 | 1.0 | 0.00 | 0.01 | 0.00 | 98 | 1019.8 |
| 20260830013902 | 63 | 32 | 0.0 | 1.0 | 0.00 | 0.01 | 0.00 | 98 | 1019.9 |
| 20260830013823 | 63 | 32 | 0.0 | 1.0 | 0.00 | 0.01 | 0.00 | 98 | 1019.7 |
| 20260830013703 | 63 | 32 | 0.0 | 1.0 | 0.00 | 0.01 | 0.00 | 98 | 1019.9 |
| 20260830013603 | 63 | 32 | 0.0 | 1.0 | 0.00 | 0.01 | 0.00 | 98 | 1019.9 |
| 20260830013503 | 63 | 32 | 0.0 | 1.0 | 0.00 | 0.01 | 0.00 | 98 | 1019.8 |
| 20260830013402 | 63 | 33 | 0.0 | 1.0 | 0.00 | 0.01 | 0.00 | 98 | 1019.8 |
| 20260830013303 | 63 | 32 | 0.0 | 1.0 | 0.00 | 0.01 | 0.00 | 98 | 1019.8 |
| 20260830013203 | 63 | 32 | 0.0 | 1.0 | 0.00 | 0.01 | 0.00 | 98 | 1019.8 |
| 20260830013103 | 63 | 33 | 0.0 | 1.0 | 0.00 | 0.01 | 0.00 | 98 | 1020.0 |